Wetterdaten: Sonntag, 19.06.2016
Datum Zeit Temp. Aussen Temp. o. S. +5cm Feuchte Auss BlattFeu 1 Luftdruck Regen Sonnenschein Regendauer Solar Windben Empfang
19.06.2016 00:00 13,4 C 13,3 C 12,2 C 93 % 0 lf 1019,6 hPa 0,0 l/m 0 min 0 min 5 W/m 12,6 km/h (3 Bft) 95,74 %
19.06.2016 00:02 13,4 C 13,3 C 12,2 C 93 % 0 lf 1019,6 hPa 0,0 l/m 0 min 0 min 5 W/m 16,7 km/h (3 Bft) 91,30 %
19.06.2016 00:06 13,4 C 13,3 C 12,2 C 93 % 0 lf 1019,6 hPa 0,0 l/m 0 min 0 min 5 W/m 14,6 km/h (3 Bft) 91,57 %
19.06.2016 00:08 13,4 C 13,3 C 12,2 C 93 % 0 lf 1019,7 hPa 0,0 l/m 0 min 0 min 5 W/m 12,6 km/h (3 Bft) 97,83 %
19.06.2016 00:10 13,4 C 13,3 C 12,2 C 93 % 0 lf 1019,6 hPa 0,0 l/m 0 min 0 min 5 W/m 12,6 km/h (3 Bft) 95,74 %
19.06.2016 00:12 13,4 C 13,3 C 12,2 C 93 % 0 lf 1019,7 hPa 0,0 l/m 0 min 0 min 5 W/m 4,2 km/h (1 Bft) 92,00 %
19.06.2016 00:14 13,4 C 13,3 C 12,2 C 93 % 0 lf 1019,7 hPa 0,0 l/m 0 min 0 min 5 W/m 6,3 km/h (2 Bft) 95,74 %
19.06.2016 00:16 13,4 C 13,3 C 12,2 C 93 % 0 lf 1019,7 hPa 0,0 l/m 0 min 0 min 5 W/m 10,5 km/h (2 Bft) 95,74 %
19.06.2016 00:18 13,4 C 13,3 C 12,2 C 93 % 0 lf 1019,7 hPa 0,0 l/m 0 min 0 min 5 W/m 14,6 km/h (3 Bft) 93,62 %
19.06.2016 00:20 13,4 C 13,3 C 12,2 C 93 % 0 lf 1019,7 hPa 0,0 l/m 0 min 0 min 5 W/m 14,6 km/h (3 Bft) 93,48 %
19.06.2016 00:22 13,4 C 13,3 C 12,2 C 93 % 0 lf 1019,7 hPa 0,0 l/m 0 min 0 min 5 W/m 14,6 km/h (3 Bft) 95,83 %
19.06.2016 00:24 13,4 C 13,3 C 12,2 C 93 % 0 lf 1019,7 hPa 0,0 l/m 0 min 0 min 5 W/m 16,7 km/h (3 Bft) 93,62 %
19.06.2016 00:26 13,3 C 13,3 C 12,2 C 93 % 0 lf 1019,7 hPa 0,0 l/m 0 min 0 min 5 W/m 12,6 km/h (3 Bft) 93,62 %
19.06.2016 00:28 13,3 C 13,3 C 12,2 C 93 % 0 lf 1019,7 hPa 0,0 l/m 0 min 0 min 5 W/m 12,6 km/h (3 Bft) 91,49 %
19.06.2016 00:30 13,3 C 13,3 C 11,7 C 93 % 0 lf 1019,7 hPa 0,0 l/m 0 min 0 min 5 W/m 10,5 km/h (2 Bft) 93,48 %
19.06.2016 00:32 13,3 C 13,3 C 11,7 C 93 % 0 lf 1019,7 hPa 0,0 l/m 0 min 0 min 5 W/m 14,6 km/h (3 Bft) 91,49 %
19.06.2016 00:34 13,3 C 13,3 C 11,7 C 93 % 0 lf 1019,7 hPa 0,0 l/m 0 min 0 min 5 W/m 12,6 km/h (3 Bft) 95,74 %
19.06.2016 00:36 13,3 C 13,3 C 11,7 C 93 % 0 lf 1019,8 hPa 0,0 l/m 0 min 0 min 5 W/m 14,6 km/h (3 Bft) 93,02 %
19.06.2016 00:38 13,3 C 13,3 C 11,7 C 93 % 0 lf 1019,8 hPa 0,0 l/m 0 min 0 min 5 W/m 12,6 km/h (3 Bft) 93,62 %
19.06.2016 00:40 13,3 C 13,3 C 11,7 C 93 % 0 lf 1019,8 hPa 0,0 l/m 0 min 0 min 5 W/m 10,5 km/h (2 Bft) 95,74 %
19.06.2016 00:42 13,3 C 13,3 C 11,7 C 93 % 0 lf 1019,8 hPa 0,0 l/m 0 min 0 min 5 W/m 10,5 km/h (2 Bft) 95,65 %
19.06.2016 00:44 13,3 C 13,3 C 11,7 C 93 % 0 lf 1019,8 hPa 0,0 l/m 0 min 0 min 5 W/m 16,7 km/h (3 Bft) 93,62 %
19.06.2016 00:46 13,3 C 13,3 C 11,7 C 93 % 0 lf 1019,8 hPa 0,0 l/m 0 min 0 min 5 W/m 16,7 km/h (3 Bft) 91,49 %
19.06.2016 00:48 13,3 C 13,3 C 11,7 C 93 % 0 lf 1019,9 hPa 0,0 l/m 0 min 0 min 5 W/m 16,7 km/h (3 Bft) 93,62 %
19.06.2016 00:50 13,3 C 13,3 C 11,7 C 93 % 0 lf 1019,9 hPa 0,0 l/m 0 min 0 min 5 W/m 12,6 km/h (3 Bft) 93,62 %
19.06.2016 00:52 13,3 C 13,3 C 11,7 C 93 % 0 lf 1019,9 hPa 0,0 l/m 0 min 0 min 5 W/m 14,6 km/h (3 Bft) 96,00 %
19.06.2016 00:54 13,3 C 13,3 C 11,7 C 93 % 0 lf 1019,9 hPa 0,0 l/m 0 min 0 min 5 W/m 10,5 km/h (2 Bft) 93,48 %
19.06.2016 00:56 13,3 C 13,3 C 11,7 C 93 % 0 lf 1019,9 hPa 0,0 l/m 0 min 0 min 5 W/m 12,6 km/h (3 Bft) 95,74 %
19.06.2016 00:58 13,3 C 13,3 C 11,7 C 94 % 0 lf 1019,9 hPa 0,0 l/m 0 min 0 min 5 W/m 6,3 km/h (2 Bft) 97,87 %
19.06.2016 01:00 13,3 C 13,3 C 11,7 C 94 % 0 lf 1019,9 hPa 0,0 l/m 0 min 0 min 5 W/m 16,7 km/h (3 Bft) 95,74 %
19.06.2016 01:02 13,3 C 12,8 C 11,7 C 94 % 0 lf 1019,8 hPa 0,0 l/m 0 min 0 min 5 W/m 12,6 km/h (3 Bft) 95,83 %
19.06.2016 01:04 13,2 C 12,8 C 11,7 C 94 % 0 lf 1019,9 hPa 0,0 l/m 0 min 0 min 5 W/m 12,6 km/h (3 Bft) 93,48 %
19.06.2016 01:06 13,2 C 12,8 C 11,7 C 94 % 0 lf 1019,8 hPa 0,0 l/m 0 min 0 min 5 W/m 10,5 km/h (2 Bft) 97,87 %
19.06.2016 01:08 13,2 C 12,8 C 11,7 C 94 % 0 lf 1019,8 hPa 0,0 l/m 0 min 0 min 5 W/m 8,4 km/h (2 Bft) 97,87 %
19.06.2016 01:10 13,2 C 12,8 C 11,7 C 94 % 0 lf 1019,8 hPa 0,0 l/m 0 min 0 min 5 W/m 10,5 km/h (2 Bft) 93,62 %
19.06.2016 01:12 13,2 C 12,8 C 11,7 C 94 % 0 lf 1019,8 hPa 0,0 l/m 0 min 0 min 5 W/m 10,5 km/h (2 Bft) 97,87 %
19.06.2016 01:14 13,2 C 12,8 C 11,7 C 94 % 0 lf 1019,8 hPa 0,0 l/m 0 min 0 min 5 W/m 12,6 km/h (3 Bft) 97,87 %
19.06.2016 01:16 13,2 C 12,8 C 11,7 C 94 % 0 lf 1019,9 hPa 0,0 l/m 0 min 0 min 5 W/m 14,6 km/h (3 Bft) 97,83 %
19.06.2016 01:18 13,2 C 12,8 C 11,7 C 94 % 0 lf 1019,9 hPa 0,0 l/m 0 min 0 min 5 W/m 6,3 km/h (2 Bft) 97,87 %
19.06.2016 01:20 13,2 C 12,8 C 11,7 C 94 % 0 lf 1019,9 hPa 0,0 l/m 0 min 0 min 5 W/m 10,5 km/h (2 Bft) 97,87 %
19.06.2016 01:22 13,2 C 12,8 C 11,7 C 94 % 0 lf 1019,9 hPa 0,0 l/m 0 min 0 min 5 W/m 18,8 km/h (3 Bft) 100,00 %
19.06.2016 01:24 13,2 C 12,8 C 11,7 C 94 % 0 lf 1019,9 hPa 0,0 l/m 0 min 0 min 5 W/m 10,5 km/h (2 Bft) 97,87 %
19.06.2016 01:26 13,2 C 12,8 C 11,7 C 94 % 0 lf 1019,9 hPa 0,0 l/m 0 min 0 min 5 W/m 6,3 km/h (2 Bft) 100,00 %
19.06.2016 01:28 13,2 C 12,8 C 11,7 C 94 % 0 lf 1019,9 hPa 0,0 l/m 0 min 0 min 5 W/m 14,6 km/h (3 Bft) 97,83 %
19.06.2016 01:30 13,2 C 13,3 C 11,7 C 94 % 0 lf 1019,9 hPa 0,0 l/m 0 min 0 min 5 W/m 14,6 km/h (3 Bft) 100,00 %
19.06.2016 01:32 13,2 C 13,3 C 11,7 C 94 % 0 lf 1019,9 hPa 0,0 l/m 0 min 0 min 5 W/m 10,5 km/h (2 Bft) 96,00 %
19.06.2016 01:34 13,2 C 13,3 C 11,7 C 94 % 0 lf 1020,0 hPa 0,0 l/m 0 min 0 min 5 W/m 14,6 km/h (3 Bft) 100,00 %
19.06.2016 01:36 13,2 C 13,3 C 12,2 C 94 % 0 lf 1020,0 hPa 0,0 l/m 0 min 0 min 5 W/m 10,5 km/h (2 Bft) 95,83 %
19.06.2016 01:38 13,2 C 13,3 C 12,2 C 94 % 0 lf 1020,0 hPa 0,0 l/m 0 min 0 min 5 W/m 8,4 km/h (2 Bft) 97,87 %
19.06.2016 01:40 13,2 C 13,3 C 12,2 C 94 % 0 lf 1020,1 hPa 0,0 l/m 0 min 0 min 5 W/m 14,6 km/h (3 Bft) 97,83 %
19.06.2016 01:42 13,2 C 13,3 C 12,2 C 94 % 0 lf 1020,0 hPa 0,0 l/m 0 min 0 min 5 W/m 8,4 km/h (2 Bft) 97,87 %
19.06.2016 01:44 13,2 C 13,3 C 12,2 C 94 % 0 lf 1020,1 hPa 0,0 l/m 0 min 0 min 5 W/m 12,6 km/h (3 Bft) 97,87 %
19.06.2016 01:46 13,2 C 13,3 C 12,2 C 94 % 0 lf 1020,1 hPa 0,0 l/m 0 min 0 min 5 W/m 12,6 km/h (3 Bft) 100,00 %
19.06.2016 01:48 13,2 C 13,3 C 12,2 C 94 % 0 lf 1020,1 hPa 0,0 l/m 0 min 0 min 5 W/m 10,5 km/h (2 Bft) 100,00 %
19.06.2016 01:50 13,2 C 13,3 C 11,7 C 94 % 1 lf 1020,1 hPa 0,0 l/m 0 min 0 min 5 W/m 12,6 km/h (3 Bft) 100,00 %
19.06.2016 01:52 13,2 C 12,8 C 11,7 C 94 % 6 lf 1020,2 hPa 0,0 l/m 0 min 0 min 5 W/m 16,7 km/h (3 Bft) 97,67 %
19.06.2016 01:54 13,2 C 12,8 C 11,7 C 94 % 14 lf 1020,2 hPa 0,0 l/m 0 min 0 min 5 W/m 16,7 km/h (3 Bft) 93,62 %
19.06.2016 01:56 13,2 C 12,8 C 11,7 C 94 % 15 lf 1020,2 hPa 0,0 l/m 0 min 0 min 5 W/m 12,6 km/h (3 Bft) 97,87 %
19.06.2016 01:58 13,2 C 12,8 C 11,7 C 94 % 15 lf 1020,3 hPa 0,0 l/m 0 min 0 min 5 W/m 14,6 km/h (3 Bft) 95,74 %
19.06.2016 02:00 13,2 C 12,8 C 11,7 C 94 % 14 lf 1020,3 hPa 0,0 l/m 0 min 0 min 5 W/m 18,8 km/h (3 Bft) 97,87 %
19.06.2016 02:02 13,2 C 12,8 C 11,7 C 94 % 14 lf 1020,3 hPa 0,0 l/m 0 min 0 min 5 W/m 12,6 km/h (3 Bft) 97,87 %
19.06.2016 02:04 13,2 C 12,8 C 11,7 C 94 % 14 lf 1020,3 hPa 0,0 l/m 0 min 0 min 5 W/m 10,5 km/h (2 Bft) 95,65 %
19.06.2016 02:06 13,2 C 12,8 C 11,7 C 94 % 13 lf 1020,4 hPa 0,0 l/m 0 min 0 min 5 W/m 12,6 km/h (3 Bft) 98,00 %
19.06.2016 02:08 13,2 C 12,8 C 11,7 C 94 % 13 lf 1020,4 hPa 0,0 l/m 0 min 0 min 5 W/m 8,4 km/h (2 Bft) 95,74 %
19.06.2016 02:10 13,2 C 12,8 C 11,7 C 94 % 12 lf 1020,3 hPa 0,0 l/m 0 min 0 min 5 W/m 16,7 km/h (3 Bft) 89,36 %
19.06.2016 02:12 13,2 C 12,8 C 11,7 C 95 % 12 lf 1020,4 hPa 0,0 l/m 0 min 0 min 5 W/m 12,6 km/h (3 Bft) 93,75 %
19.06.2016 02:14 13,2 C 12,8 C 11,7 C 95 % 11 lf 1020,4 hPa 0,0 l/m 0 min 0 min 5 W/m 16,7 km/h (3 Bft) 91,30 %
19.06.2016 02:16 13,2 C 12,8 C 11,7 C 95 % 10 lf 1020,4 hPa 0,0 l/m 0 min 0 min 5 W/m 16,7 km/h (3 Bft) 93,62 %
19.06.2016 02:18 13,2 C 12,8 C 11,7 C 95 % 8 lf 1020,4 hPa 0,0 l/m 0 min 0 min 5 W/m 20,9 km/h (4 Bft) 91,49 %
19.06.2016 02:20 13,1 C 12,8 C 11,7 C 95 % 6 lf 1020,4 hPa 0,0 l/m 0 min 0 min 5 W/m 16,7 km/h (3 Bft) 95,74 %
19.06.2016 02:22 13,1 C 12,8 C 11,7 C 95 % 4 lf 1020,4 hPa 0,0 l/m 0 min 0 min 5 W/m 14,6 km/h (3 Bft) 91,49 %
19.06.2016 02:24 13,1 C 12,8 C 11,7 C 95 % 4 lf 1020,3 hPa 0,0 l/m 0 min 0 min 5 W/m 20,9 km/h (4 Bft) 95,74 %
19.06.2016 02:26 13,1 C 12,8 C 11,7 C 95 % 3 lf 1020,4 hPa 0,0 l/m 0 min 0 min 5 W/m 10,5 km/h (2 Bft) 95,65 %
19.06.2016 02:28 13,1 C 12,8 C 11,7 C 95 % 3 lf 1020,3 hPa 0,0 l/m 0 min 0 min 5 W/m 20,9 km/h (4 Bft) 97,87 %
19.06.2016 02:30 13,1 C 12,8 C 11,7 C 95 % 2 lf 1020,4 hPa 0,0 l/m 0 min 0 min 5 W/m 16,7 km/h (3 Bft) 95,74 %
19.06.2016 02:32 13,1 C 12,8 C 11,7 C 95 % 1 lf 1020,4 hPa 0,0 l/m 0 min 0 min 5 W/m 18,8 km/h (3 Bft) 97,67 %
19.06.2016 02:34 13,0 C 12,8 C 11,7 C 95 % 15 lf 1020,4 hPa 0,0 l/m 0 min 2 min 5 W/m 23,0 km/h (4 Bft) 97,87 %
19.06.2016 02:36 13,0 C 12,8 C 11,7 C 95 % 15 lf 1020,4 hPa 0,0 l/m 0 min 2 min 5 W/m 23,0 km/h (4 Bft) 98,00 %
19.06.2016 02:38 13,0 C 12,8 C 11,7 C 95 % 15 lf 1020,4 hPa 0,0 l/m 0 min 2 min 5 W/m 12,6 km/h (3 Bft) 97,83 %
19.06.2016 02:40 12,9 C 12,8 C 11,1 C 95 % 15 lf 1020,4 hPa 0,0 l/m 0 min 0 min 5 W/m 14,6 km/h (3 Bft) 97,87 %
19.06.2016 02:42 12,9 C 12,8 C 11,1 C 95 % 15 lf 1020,4 hPa 0,0 l/m 0 min 0 min 5 W/m 16,7 km/h (3 Bft) 97,87 %
19.06.2016 02:44 12,9 C 12,8 C 11,1 C 94 % 15 lf 1020,4 hPa 0,0 l/m 0 min 0 min 5 W/m 16,7 km/h (3 Bft) 95,74 %
19.06.2016 02:46 12,8 C 12,8 C 11,1 C 94 % 15 lf 1020,4 hPa 0,0 l/m 0 min 0 min 5 W/m 18,8 km/h (3 Bft) 95,74 %
19.06.2016 02:48 12,8 C 12,8 C 11,1 C 94 % 15 lf 1020,4 hPa 0,0 l/m 0 min 0 min 5 W/m 10,5 km/h (2 Bft) 95,74 %
19.06.2016 02:50 12,8 C 12,8 C 11,1 C 94 % 15 lf 1020,4 hPa 0,0 l/m 0 min 0 min 5 W/m 14,6 km/h (3 Bft) 100,00 %
19.06.2016 02:52 12,7 C 12,8 C 11,1 C 94 % 15 lf 1020,4 hPa 0,0 l/m 0 min 0 min 5 W/m 16,7 km/h (3 Bft) 100,00 %
19.06.2016 02:54 12,7 C 12,8 C 11,1 C 94 % 15 lf 1020,3 hPa 0,0 l/m 0 min 0 min 5 W/m 16,7 km/h (3 Bft) 97,87 %
19.06.2016 02:56 12,7 C 12,8 C 11,1 C 94 % 15 lf 1020,4 hPa 0,0 l/m 0 min 0 min 5 W/m 10,5 km/h (2 Bft) 100,00 %
19.06.2016 02:58 12,7 C 12,8 C 11,1 C 94 % 14 lf 1020,3 hPa 0,0 l/m 0 min 0 min 5 W/m 14,6 km/h (3 Bft) 100,00 %
19.06.2016 03:00 12,7 C 12,8 C 11,1 C 94 % 14 lf 1020,4 hPa 0,0 l/m 0 min 0 min 5 W/m 16,7 km/h (3 Bft) 93,62 %
19.06.2016 03:02 12,7 C 12,8 C 11,1 C 94 % 13 lf 1020,4 hPa 0,0 l/m 0 min 0 min 5 W/m 14,6 km/h (3 Bft) 97,83 %
19.06.2016 03:04 12,7 C 12,8 C 11,1 C 94 % 12 lf 1020,4 hPa 0,0 l/m 0 min 0 min 5 W/m 8,4 km/h (2 Bft) 97,87 %
19.06.2016 03:06 12,7 C 12,8 C 11,1 C 94 % 12 lf 1020,4 hPa 0,0 l/m 0 min 0 min 5 W/m 14,6 km/h (3 Bft) 95,74 %
19.06.2016 03:08 12,7 C 12,8 C 11,1 C 94 % 11 lf 1020,4 hPa 0,0 l/m 0 min 0 min 5 W/m 14,6 km/h (3 Bft) 100,00 %
19.06.2016 03:10 12,7 C 12,8 C 11,1 C 94 % 10 lf 1020,4 hPa 0,0 l/m 0 min 0 min 5 W/m 8,4 km/h (2 Bft) 97,87 %
19.06.2016 03:12 12,7 C 12,8 C 11,1 C 94 % 9 lf 1020,4 hPa 0,0 l/m 0 min 0 min 5 W/m 12,6 km/h (3 Bft) 97,92 %
19.06.2016 03:14 12,6 C 12,8 C 11,1 C 94 % 7 lf 1020,4 hPa 0,0 l/m 0 min 0 min 5 W/m 12,6 km/h (3 Bft) 97,83 %
19.06.2016 03:16 12,6 C 12,8 C 11,1 C 94 % 5 lf 1020,5 hPa 0,0 l/m 0 min 0 min 5 W/m 8,4 km/h (2 Bft) 97,87 %
19.06.2016 03:18 12,6 C 12,8 C 11,1 C 94 % 4 lf 1020,5 hPa 0,0 l/m 0 min 0 min 5 W/m 14,6 km/h (3 Bft) 95,74 %
19.06.2016 03:20 12,6 C 12,8 C 11,1 C 94 % 3 lf 1020,5 hPa 0,0 l/m 0 min 0 min 5 W/m 14,6 km/h (3 Bft) 97,87 %
19.06.2016 03:22 12,6 C 12,8 C 11,1 C 94 % 2 lf 1020,5 hPa 0,0 l/m 0 min 0 min 5 W/m 12,6 km/h (3 Bft) 95,74 %
19.06.2016 03:24 12,6 C 12,8 C 11,1 C 94 % 1 lf 1020,5 hPa 0,0 l/m 0 min 0 min 5 W/m 10,5 km/h (2 Bft) 95,65 %
19.06.2016 03:26 12,6 C 12,8 C 11,1 C 94 % 1 lf 1020,6 hPa 0,0 l/m 0 min 0 min 5 W/m 12,6 km/h (3 Bft) 97,87 %
19.06.2016 03:28 12,6 C 12,8 C 11,1 C 94 % 1 lf 1020,6 hPa 0,0 l/m 0 min 0 min 5 W/m 6,3 km/h (2 Bft) 95,74 %
19.06.2016 03:30 12,6 C 12,8 C 11,1 C 94 % 0 lf 1020,6 hPa 0,0 l/m 0 min 0 min 5 W/m 12,6 km/h (3 Bft) 100,00 %
19.06.2016 03:32 12,6 C 12,8 C 11,1 C 94 % 0 lf 1020,6 hPa 0,0 l/m 0 min 0 min 5 W/m 6,3 km/h (2 Bft) 97,67 %
19.06.2016 03:34 12,6 C 12,8 C 11,1 C 94 % 0 lf 1020,6 hPa 0,0 l/m 0 min 0 min 5 W/m 10,5 km/h (2 Bft) 93,62 %
19.06.2016 03:36 12,6 C 12,8 C 11,1 C 94 % 0 lf 1020,6 hPa 0,0 l/m 0 min 0 min 5 W/m 8,4 km/h (2 Bft) 97,96 %
19.06.2016 03:38 12,6 C 12,8 C 11,1 C 94 % 0 lf 1020,7 hPa 0,0 l/m 0 min 0 min 5 W/m 8,4 km/h (2 Bft) 95,74 %
19.06.2016 03:40 12,6 C 12,8 C 11,1 C 94 % 0 lf 1020,7 hPa 0,0 l/m 0 min 0 min 5 W/m 8,4 km/h (2 Bft) 93,62 %
19.06.2016 03:42 12,6 C 12,8 C 11,1 C 94 % 0 lf 1020,7 hPa 0,0 l/m 0 min 0 min 5 W/m 12,6 km/h (3 Bft) 93,62 %
19.06.2016 03:44 12,6 C 12,8 C 11,1 C 94 % 0 lf 1020,7 hPa 0,0 l/m 0 min 0 min 5 W/m 14,6 km/h (3 Bft) 97,87 %
19.06.2016 03:46 12,6 C 12,8 C 11,7 C 94 % 0 lf 1020,7 hPa 0,0 l/m 0 min 0 min 5 W/m 8,4 km/h (2 Bft) 97,87 %
19.06.2016 03:48 12,6 C 12,8 C 11,7 C 94 % 0 lf 1020,7 hPa 0,0 l/m 0 min 0 min 5 W/m 16,7 km/h (3 Bft) 93,48 %
19.06.2016 03:50 12,6 C 12,8 C 11,7 C 94 % 0 lf 1020,7 hPa 0,0 l/m 0 min 0 min 5 W/m 10,5 km/h (2 Bft) 91,49 %
19.06.2016 03:52 12,6 C 12,8 C 11,1 C 94 % 0 lf 1020,6 hPa 0,0 l/m 0 min 0 min 5 W/m 10,5 km/h (2 Bft) 93,75 %
19.06.2016 03:54 12,6 C 12,8 C 11,1 C 94 % 0 lf 1020,7 hPa 0,0 l/m 0 min 0 min 5 W/m 12,6 km/h (3 Bft) 93,62 %
19.06.2016 03:56 12,6 C 12,8 C 11,1 C 94 % 0 lf 1020,8 hPa 0,0 l/m 0 min 0 min 5 W/m 12,6 km/h (3 Bft) 89,36 %
19.06.2016 03:58 12,6 C 12,8 C 11,1 C 94 % 0 lf 1020,8 hPa 0,0 l/m 0 min 0 min 5 W/m 10,5 km/h (2 Bft) 93,62 %
19.06.2016 04:00 12,6 C 12,8 C 11,1 C 94 % 0 lf 1020,8 hPa 0,0 l/m 0 min 0 min 5 W/m 10,5 km/h (2 Bft) 93,48 %
19.06.2016 04:02 12,6 C 12,2 C 11,1 C 94 % 0 lf 1020,8 hPa 0,0 l/m 0 min 0 min 5 W/m 10,5 km/h (2 Bft) 100,00 %
19.06.2016 04:04 12,6 C 12,2 C 11,1 C 94 % 0 lf 1020,9 hPa 0,0 l/m 0 min 0 min 5 W/m 8,4 km/h (2 Bft) 89,36 %
19.06.2016 04:06 12,6 C 12,2 C 11,1 C 94 % 0 lf 1020,7 hPa 0,0 l/m 0 min 0 min 5 W/m 10,5 km/h (2 Bft) 95,35 %
19.06.2016 04:08 12,5 C 12,2 C 11,1 C 94 % 0 lf 1020,8 hPa 0,0 l/m 0 min 0 min 5 W/m 12,6 km/h (3 Bft) 95,74 %
19.06.2016 04:10 12,5 C 12,2 C 11,1 C 94 % 0 lf 1020,8 hPa 0,0 l/m 0 min 0 min 5 W/m 16,7 km/h (3 Bft) 93,62 %
19.06.2016 04:12 12,5 C 12,2 C 11,1 C 94 % 0 lf 1020,8 hPa 0,0 l/m 0 min 0 min 5 W/m 16,7 km/h (3 Bft) 93,48 %
19.06.2016 04:14 12,5 C 12,2 C 11,1 C 94 % 0 lf 1020,8 hPa 0,0 l/m 0 min 0 min 5 W/m 8,4 km/h (2 Bft) 97,83 %
19.06.2016 04:16 12,5 C 12,2 C 11,1 C 94 % 0 lf 1020,8 hPa 0,0 l/m 0 min 0 min 5 W/m 8,4 km/h (2 Bft) 95,74 %
19.06.2016 04:18 12,5 C 12,2 C 11,1 C 94 % 0 lf 1020,9 hPa 0,0 l/m 0 min 0 min 5 W/m 12,6 km/h (3 Bft) 95,74 %
19.06.2016 04:20 12,4 C 12,2 C 11,1 C 94 % 0 lf 1020,9 hPa 0,0 l/m 0 min 0 min 5 W/m 14,6 km/h (3 Bft) 91,49 %
19.06.2016 04:22 12,4 C 12,2 C 11,1 C 94 % 0 lf 1020,9 hPa 0,0 l/m 0 min 0 min 5 W/m 14,6 km/h (3 Bft) 96,00 %
19.06.2016 04:24 12,4 C 12,2 C 11,1 C 94 % 0 lf 1020,9 hPa 0,0 l/m 0 min 0 min 5 W/m 10,5 km/h (2 Bft) 97,83 %
19.06.2016 04:26 12,4 C 12,2 C 11,1 C 94 % 0 lf 1020,9 hPa 0,0 l/m 0 min 0 min 5 W/m 10,5 km/h (2 Bft) 97,87 %
19.06.2016 04:28 12,4 C 12,2 C 11,1 C 94 % 0 lf 1020,9 hPa 0,0 l/m 0 min 0 min 5 W/m 14,6 km/h (3 Bft) 91,49 %
19.06.2016 04:30 12,4 C 12,2 C 11,1 C 94 % 0 lf 1020,9 hPa 0,0 l/m 0 min 0 min 5 W/m 16,7 km/h (3 Bft) 95,74 %
19.06.2016 04:32 12,4 C 12,2 C 11,1 C 94 % 0 lf 1020,9 hPa 0,0 l/m 0 min 0 min 5 W/m 14,6 km/h (3 Bft) 97,92 %
19.06.2016 04:34 12,4 C 12,2 C 11,1 C 94 % 0 lf 1020,9 hPa 0,0 l/m 0 min 0 min 5 W/m 8,4 km/h (2 Bft) 97,87 %
19.06.2016 04:36 12,4 C 12,2 C 11,1 C 94 % 0 lf 1020,9 hPa 0,0 l/m 0 min 0 min 5 W/m 8,4 km/h (2 Bft) 97,83 %
19.06.2016 04:38 12,4 C 12,2 C 11,1 C 94 % 0 lf 1020,9 hPa 0,0 l/m 0 min 0 min 5 W/m 6,3 km/h (2 Bft) 91,49 %
19.06.2016 04:40 12,4 C 12,2 C 11,1 C 94 % 0 lf 1020,9 hPa 0,0 l/m 0 min 0 min 5 W/m 12,6 km/h (3 Bft) 93,62 %
19.06.2016 04:42 12,4 C 12,2 C 11,1 C 94 % 0 lf 1020,9 hPa 0,0 l/m 0 min 0 min 5 W/m 14,6 km/h (3 Bft) 97,87 %
19.06.2016 04:44 12,4 C 12,2 C 11,1 C 94 % 0 lf 1020,9 hPa 0,0 l/m 0 min 0 min 5 W/m 16,7 km/h (3 Bft) 95,74 %
19.06.2016 04:46 12,4 C 12,2 C 11,1 C 94 % 0 lf 1020,9 hPa 0,0 l/m 0 min 0 min 5 W/m 8,4 km/h (2 Bft) 95,74 %
19.06.2016 04:48 12,3 C 12,2 C 11,1 C 94 % 0 lf 1021,0 hPa 0,0 l/m 0 min 0 min 5 W/m 6,3 km/h (2 Bft) 97,83 %
19.06.2016 04:50 12,3 C 12,2 C 11,1 C 94 % 0 lf 1020,9 hPa 0,0 l/m 0 min 0 min 5 W/m 8,4 km/h (2 Bft) 93,62 %
19.06.2016 04:52 12,3 C 12,2 C 11,1 C 94 % 0 lf 1021,0 hPa 0,0 l/m 0 min 0 min 5 W/m 10,5 km/h (2 Bft) 93,02 %
19.06.2016 04:54 12,3 C 12,2 C 11,1 C 93 % 0 lf 1021,0 hPa 0,0 l/m 0 min 0 min 5 W/m 8,4 km/h (2 Bft) 95,74 %
19.06.2016 04:56 12,3 C 12,2 C 11,1 C 93 % 0 lf 1021,0 hPa 0,0 l/m 0 min 0 min 5 W/m 8,4 km/h (2 Bft) 93,62 %
19.06.2016 04:58 12,3 C 12,2 C 11,1 C 93 % 0 lf 1021,0 hPa 0,0 l/m 0 min 0 min 5 W/m 8,4 km/h (2 Bft) 95,74 %
19.06.2016 05:00 12,3 C 12,2 C 11,1 C 93 % 0 lf 1021,0 hPa 0,0 l/m 0 min 0 min 5 W/m 8,4 km/h (2 Bft) 97,83 %
19.06.2016 05:02 12,3 C 12,2 C 11,1 C 93 % 0 lf 1021,1 hPa 0,0 l/m 0 min 0 min 5 W/m 2,1 km/h (1 Bft) 89,36 %
19.06.2016 05:04 12,3 C 12,2 C 11,1 C 93 % 0 lf 1021,1 hPa 0,0 l/m 0 min 0 min 5 W/m 10,5 km/h (2 Bft) 97,87 %
19.06.2016 05:06 12,3 C 12,2 C 11,1 C 93 % 0 lf 1021,1 hPa 0,0 l/m 0 min 0 min 5 W/m 6,3 km/h (2 Bft) 94,00 %
19.06.2016 05:08 12,3 C 12,2 C 11,1 C 93 % 0 lf 1021,1 hPa 0,0 l/m 0 min 0 min 5 W/m 4,2 km/h (1 Bft) 95,74 %
19.06.2016 05:10 12,3 C 12,2 C 11,1 C 93 % 0 lf 1021,1 hPa 0,0 l/m 0 min 0 min 5 W/m 4,2 km/h (1 Bft) 97,83 %
19.06.2016 05:12 12,3 C 12,2 C 11,1 C 93 % 0 lf 1021,1 hPa 0,0 l/m 0 min 0 min 7 W/m 6,3 km/h (2 Bft) 95,74 %
19.06.2016 05:14 12,3 C 12,2 C 11,1 C 93 % 0 lf 1021,1 hPa 0,0 l/m 0 min 0 min 7 W/m 8,4 km/h (2 Bft) 97,87 %
19.06.2016 05:16 12,3 C 12,2 C 11,1 C 93 % 0 lf 1021,1 hPa 0,0 l/m 0 min 0 min 7 W/m 12,6 km/h (3 Bft) 93,62 %
19.06.2016 05:18 12,3 C 12,2 C 11,1 C 93 % 0 lf 1021,1 hPa 0,0 l/m 0 min 0 min 7 W/m 10,5 km/h (2 Bft) 93,62 %
19.06.2016 05:20 12,3 C 12,2 C 11,1 C 93 % 0 lf 1021,2 hPa 0,0 l/m 0 min 0 min 7 W/m 8,4 km/h (2 Bft) 93,62 %
19.06.2016 05:22 12,3 C 12,2 C 11,1 C 93 % 0 lf 1021,2 hPa 0,0 l/m 0 min 0 min 7 W/m 14,6 km/h (3 Bft) 97,87 %
19.06.2016 05:24 12,3 C 12,2 C 11,1 C 93 % 0 lf 1021,2 hPa 0,0 l/m 0 min 0 min 7 W/m 14,6 km/h (3 Bft) 91,49 %
19.06.2016 05:26 12,3 C 12,2 C 11,1 C 93 % 0 lf 1021,2 hPa 0,0 l/m 0 min 0 min 7 W/m 12,6 km/h (3 Bft) 95,74 %
19.06.2016 05:28 12,3 C 12,2 C 11,1 C 93 % 0 lf 1021,2 hPa 0,0 l/m 0 min 0 min 7 W/m 10,5 km/h (2 Bft) 97,87 %
19.06.2016 05:30 12,3 C 12,2 C 11,1 C 93 % 0 lf 1021,2 hPa 0,0 l/m 0 min 0 min 7 W/m 12,6 km/h (3 Bft) 95,74 %
19.06.2016 05:32 12,3 C 12,2 C 11,1 C 93 % 0 lf 1021,3 hPa 0,0 l/m 0 min 0 min 7 W/m 12,6 km/h (3 Bft) 97,87 %
19.06.2016 05:34 12,3 C 12,2 C 11,1 C 93 % 0 lf 1021,3 hPa 0,0 l/m 0 min 0 min 8 W/m 16,7 km/h (3 Bft) 95,65 %
19.06.2016 05:36 12,3 C 12,2 C 11,1 C 93 % 0 lf 1021,3 hPa 0,0 l/m 0 min 0 min 9 W/m 12,6 km/h (3 Bft) 93,02 %
19.06.2016 05:38 12,3 C 12,2 C 11,1 C 93 % 0 lf 1021,3 hPa 0,0 l/m 0 min 0 min 10 W/m 10,5 km/h (2 Bft) 97,87 %
19.06.2016 05:40 12,3 C 12,2 C 11,1 C 94 % 0 lf 1021,4 hPa 0,0 l/m 0 min 0 min 11 W/m 14,6 km/h (3 Bft) 97,87 %
19.06.2016 05:42 12,3 C 12,2 C 11,1 C 94 % 0 lf 1021,4 hPa 0,0 l/m 0 min 0 min 12 W/m 14,6 km/h (3 Bft) 97,87 %
19.06.2016 05:44 12,3 C 12,2 C 11,1 C 94 % 0 lf 1021,4 hPa 0,0 l/m 0 min 0 min 14 W/m 10,5 km/h (2 Bft) 97,87 %
19.06.2016 05:46 12,3 C 12,2 C 11,1 C 94 % 0 lf 1021,4 hPa 0,0 l/m 0 min 0 min 15 W/m 14,6 km/h (3 Bft) 95,65 %
19.06.2016 05:48 12,3 C 12,2 C 11,1 C 94 % 0 lf 1021,5 hPa 0,0 l/m 0 min 0 min 16 W/m 16,7 km/h (3 Bft) 95,74 %
19.06.2016 05:50 12,3 C 12,2 C 11,1 C 94 % 0 lf 1021,5 hPa 0,0 l/m 0 min 0 min 17 W/m 16,7 km/h (3 Bft) 97,87 %
19.06.2016 05:52 12,3 C 12,2 C 11,1 C 94 % 0 lf 1021,5 hPa 0,0 l/m 0 min 0 min 18 W/m 6,3 km/h (2 Bft) 96,00 %
19.06.2016 05:54 12,3 C 12,2 C 11,1 C 94 % 0 lf 1021,5 hPa 0,0 l/m 0 min 0 min 19 W/m 12,6 km/h (3 Bft) 95,74 %
19.06.2016 05:56 12,3 C 12,2 C 11,1 C 94 % 0 lf 1021,5 hPa 0,0 l/m 0 min 0 min 21 W/m 12,6 km/h (3 Bft) 95,74 %
19.06.2016 05:58 12,3 C 12,2 C 11,1 C 94 % 0 lf 1021,5 hPa 0,0 l/m 0 min 0 min 23 W/m 10,5 km/h (2 Bft) 97,83 %
19.06.2016 06:00 12,3 C 12,2 C 11,1 C 94 % 0 lf 1021,5 hPa 0,0 l/m 0 min 0 min 24 W/m 12,6 km/h (3 Bft) 97,87 %
19.06.2016 06:02 12,3 C 12,2 C 11,1 C 94 % 0 lf 1021,6 hPa 0,0 l/m 0 min 0 min 25 W/m 8,4 km/h (2 Bft) 97,87 %
19.06.2016 06:04 12,3 C 12,2 C 11,1 C 94 % 0 lf 1021,6 hPa 0,0 l/m 0 min 0 min 25 W/m 12,6 km/h (3 Bft) 97,92 %
19.06.2016 06:06 12,3 C 12,2 C 11,1 C 94 % 0 lf 1021,6 hPa 0,0 l/m 0 min 0 min 25 W/m 10,5 km/h (2 Bft) 93,62 %
19.06.2016 06:08 12,3 C 12,2 C 11,1 C 94 % 0 lf 1021,6 hPa 0,0 l/m 0 min 0 min 26 W/m 12,6 km/h (3 Bft) 95,65 %
19.06.2016 06:10 12,3 C 12,2 C 11,1 C 94 % 0 lf 1021,6 hPa 0,0 l/m 0 min 0 min 26 W/m 10,5 km/h (2 Bft) 100,00 %
19.06.2016 06:12 12,3 C 12,2 C 11,1 C 94 % 0 lf 1021,7 hPa 0,0 l/m 0 min 0 min 28 W/m 12,6 km/h (3 Bft) 97,87 %
19.06.2016 06:14 12,3 C 12,2 C 11,1 C 94 % 0 lf 1021,7 hPa 0,0 l/m 0 min 0 min 29 W/m 14,6 km/h (3 Bft) 98,11 %
19.06.2016 06:16 12,2 C 12,2 C 11,7 C 94 % 0 lf 1021,7 hPa 0,0 l/m 0 min 0 min 30 W/m 12,6 km/h (3 Bft) 97,87 %
19.06.2016 06:18 12,2 C 12,2 C 11,1 C 94 % 0 lf 1021,8 hPa 0,0 l/m 0 min 0 min 30 W/m 16,7 km/h (3 Bft) 100,00 %
19.06.2016 06:20 12,2 C 12,2 C 11,7 C 94 % 0 lf 1021,8 hPa 0,0 l/m 0 min 0 min 30 W/m 10,5 km/h (2 Bft) 97,83 %
19.06.2016 06:22 12,2 C 12,2 C 11,7 C 94 % 0 lf 1021,9 hPa 0,0 l/m 0 min 0 min 31 W/m 10,5 km/h (2 Bft) 97,37 %
19.06.2016 06:24 12,2 C 12,2 C 11,7 C 94 % 0 lf 1021,9 hPa 0,0 l/m 0 min 0 min 32 W/m 8,4 km/h (2 Bft) 97,87 %
19.06.2016 06:26 12,2 C 12,2 C 11,7 C 94 % 0 lf 1022,0 hPa 0,0 l/m 0 min 0 min 34 W/m 12,6 km/h (3 Bft) 97,87 %
19.06.2016 06:28 12,2 C 12,2 C 11,7 C 94 % 0 lf 1021,9 hPa 0,0 l/m 0 min 0 min 37 W/m 8,4 km/h (2 Bft) 93,62 %
19.06.2016 06:30 12,2 C 12,2 C 11,7 C 94 % 0 lf 1022,0 hPa 0,0 l/m 0 min 0 min 39 W/m 10,5 km/h (2 Bft) 91,49 %
19.06.2016 06:32 12,2 C 12,2 C 11,7 C 94 % 0 lf 1022,0 hPa 0,0 l/m 0 min 0 min 40 W/m 16,7 km/h (3 Bft) 96,43 %
19.06.2016 06:34 12,2 C 12,2 C 11,7 C 94 % 0 lf 1022,0 hPa 0,0 l/m 0 min 0 min 40 W/m 14,6 km/h (3 Bft) 95,74 %
19.06.2016 06:36 12,2 C 12,8 C 11,7 C 94 % 0 lf 1022,1 hPa 0,0 l/m 0 min 0 min 40 W/m 10,5 km/h (2 Bft) 97,37 %
19.06.2016 06:38 12,2 C 12,8 C 11,7 C 94 % 0 lf 1022,1 hPa 0,0 l/m 0 min 0 min 42 W/m 12,6 km/h (3 Bft) 97,87 %
19.06.2016 06:40 12,2 C 12,8 C 11,7 C 94 % 0 lf 1022,1 hPa 0,0 l/m 0 min 0 min 44 W/m 10,5 km/h (2 Bft) 97,87 %
19.06.2016 06:42 12,2 C 12,8 C 11,7 C 94 % 0 lf 1022,1 hPa 0,0 l/m 0 min 0 min 47 W/m 8,4 km/h (2 Bft) 95,74 %
19.06.2016 06:44 12,2 C 12,8 C 11,7 C 94 % 0 lf 1022,1 hPa 0,0 l/m 0 min 0 min 59 W/m 8,4 km/h (2 Bft) 95,65 %
19.06.2016 06:46 12,2 C 12,8 C 11,7 C 94 % 0 lf 1022,1 hPa 0,0 l/m 0 min 0 min 62 W/m 12,6 km/h (3 Bft) 97,87 %
19.06.2016 06:48 12,3 C 12,8 C 11,7 C 94 % 0 lf 1022,2 hPa 0,0 l/m 0 min 0 min 51 W/m 6,3 km/h (2 Bft) 97,87 %
19.06.2016 06:50 12,2 C 12,8 C 11,7 C 94 % 0 lf 1022,2 hPa 0,0 l/m 0 min 0 min 42 W/m 8,4 km/h (2 Bft) 95,74 %
19.06.2016 06:52 12,3 C 12,8 C 11,7 C 94 % 0 lf 1022,2 hPa 0,0 l/m 0 min 0 min 40 W/m 10,5 km/h (2 Bft) 97,87 %
19.06.2016 06:54 12,3 C 12,8 C 11,7 C 94 % 0 lf 1022,2 hPa 0,0 l/m 0 min 0 min 39 W/m 6,3 km/h (2 Bft) 97,87 %
19.06.2016 06:56 12,3 C 12,8 C 11,7 C 94 % 0 lf 1022,2 hPa 0,0 l/m 0 min 0 min 39 W/m 6,3 km/h (2 Bft) 97,83 %
19.06.2016 06:58 12,3 C 12,8 C 11,7 C 94 % 0 lf 1022,2 hPa 0,0 l/m 0 min 0 min 42 W/m 10,5 km/h (2 Bft) 93,62 %
19.06.2016 07:00 12,3 C 12,8 C 11,7 C 94 % 0 lf 1022,3 hPa 0,0 l/m 0 min 0 min 47 W/m 6,3 km/h (2 Bft) 97,87 %
19.06.2016 07:02 12,3 C 12,8 C 11,7 C 94 % 0 lf 1022,2 hPa 0,0 l/m 0 min 0 min 58 W/m 10,5 km/h (2 Bft) 95,74 %
19.06.2016 07:04 12,3 C 12,8 C 12,2 C 94 % 0 lf 1022,2 hPa 0,0 l/m 0 min 0 min 66 W/m 8,4 km/h (2 Bft) 97,87 %
19.06.2016 07:06 12,3 C 12,8 C 12,2 C 94 % 0 lf 1022,3 hPa 0,0 l/m 0 min 0 min 71 W/m 14,6 km/h (3 Bft) 91,84 %
19.06.2016 07:08 12,3 C 12,8 C 12,2 C 94 % 0 lf 1022,3 hPa 0,0 l/m 0 min 0 min 67 W/m 6,3 km/h (2 Bft) 97,83 %
19.06.2016 07:10 12,3 C 12,8 C 12,2 C 94 % 0 lf 1022,3 hPa 0,0 l/m 0 min 0 min 65 W/m 6,3 km/h (2 Bft) 97,87 %
19.06.2016 07:12 12,4 C 12,8 C 12,2 C 94 % 0 lf 1022,3 hPa 0,0 l/m 0 min 0 min 71 W/m 4,2 km/h (1 Bft) 97,87 %
19.06.2016 07:14 12,4 C 13,3 C 12,2 C 94 % 0 lf 1022,3 hPa 0,0 l/m 0 min 0 min 76 W/m 14,6 km/h (3 Bft) 97,87 %
19.06.2016 07:16 12,4 C 13,3 C 12,2 C 94 % 0 lf 1022,3 hPa 0,0 l/m 0 min 0 min 74 W/m 14,6 km/h (3 Bft) 97,87 %
19.06.2016 07:18 12,4 C 13,3 C 12,2 C 94 % 0 lf 1022,3 hPa 0,0 l/m 0 min 0 min 69 W/m 14,6 km/h (3 Bft) 95,65 %
19.06.2016 07:20 12,4 C 13,3 C 12,2 C 94 % 0 lf 1022,3 hPa 0,0 l/m 0 min 0 min 69 W/m 12,6 km/h (3 Bft) 95,74 %
19.06.2016 07:22 12,4 C 13,3 C 12,2 C 94 % 0 lf 1022,3 hPa 0,0 l/m 0 min 0 min 70 W/m 10,5 km/h (2 Bft) 97,87 %
19.06.2016 07:24 12,4 C 13,3 C 12,2 C 94 % 0 lf 1022,4 hPa 0,0 l/m 0 min 0 min 73 W/m 8,4 km/h (2 Bft) 97,87 %
19.06.2016 07:26 12,4 C 13,3 C 12,2 C 94 % 0 lf 1022,4 hPa 0,0 l/m 0 min 0 min 75 W/m 10,5 km/h (2 Bft) 95,74 %
19.06.2016 07:28 12,4 C 13,3 C 12,2 C 94 % 0 lf 1022,5 hPa 0,0 l/m 0 min 0 min 70 W/m 10,5 km/h (2 Bft) 100,00 %
19.06.2016 07:30 12,4 C 13,3 C 12,2 C 94 % 0 lf 1022,4 hPa 0,0 l/m 0 min 0 min 67 W/m 10,5 km/h (2 Bft) 95,65 %
19.06.2016 07:32 12,5 C 13,3 C 12,2 C 94 % 0 lf 1022,5 hPa 0,0 l/m 0 min 0 min 70 W/m 10,5 km/h (2 Bft) 98,15 %
19.06.2016 07:34 12,5 C 13,3 C 12,2 C 94 % 0 lf 1022,5 hPa 0,0 l/m 0 min 0 min 82 W/m 16,7 km/h (3 Bft) 97,87 %
19.06.2016 07:36 12,5 C 13,3 C 12,2 C 94 % 0 lf 1022,5 hPa 0,0 l/m 0 min 0 min 94 W/m 8,4 km/h (2 Bft) 92,11 %
19.06.2016 07:38 12,5 C 13,3 C 12,8 C 94 % 0 lf 1022,5 hPa 0,0 l/m 0 min 0 min 112 W/m 8,4 km/h (2 Bft) 93,62 %
19.06.2016 07:40 12,5 C 13,9 C 12,8 C 94 % 0 lf 1022,5 hPa 0,0 l/m 0 min 0 min 122 W/m 6,3 km/h (2 Bft) 95,74 %
19.06.2016 07:42 12,6 C 13,9 C 12,8 C 94 % 0 lf 1022,6 hPa 0,0 l/m 0 min 0 min 133 W/m 18,8 km/h (3 Bft) 95,65 %
19.06.2016 07:44 12,6 C 13,9 C 12,8 C 94 % 0 lf 1022,6 hPa 0,0 l/m 0 min 0 min 139 W/m 18,8 km/h (3 Bft) 91,49 %
19.06.2016 07:46 12,6 C 14,4 C 13,3 C 94 % 0 lf 1022,6 hPa 0,0 l/m 0 min 0 min 135 W/m 12,6 km/h (3 Bft) 91,49 %
19.06.2016 07:48 12,6 C 14,4 C 13,3 C 94 % 0 lf 1022,6 hPa 0,0 l/m 0 min 0 min 134 W/m 12,6 km/h (3 Bft) 93,62 %
19.06.2016 07:50 12,6 C 14,4 C 13,3 C 94 % 0 lf 1022,6 hPa 0,0 l/m 0 min 0 min 139 W/m 12,6 km/h (3 Bft) 95,74 %
19.06.2016 07:52 12,7 C 14,4 C 13,3 C 94 % 0 lf 1022,6 hPa 0,0 l/m 0 min 0 min 149 W/m 8,4 km/h (2 Bft) 91,84 %
19.06.2016 07:54 12,7 C 14,4 C 13,3 C 93 % 0 lf 1022,6 hPa 0,0 l/m 0 min 0 min 149 W/m 6,3 km/h (2 Bft) 93,48 %
19.06.2016 07:56 12,7 C 14,4 C 13,3 C 93 % 0 lf 1022,7 hPa 0,0 l/m 0 min 0 min 149 W/m 16,7 km/h (3 Bft) 93,62 %
19.06.2016 07:58 12,7 C 14,4 C 13,3 C 93 % 0 lf 1022,7 hPa 0,0 l/m 0 min 0 min 150 W/m 16,7 km/h (3 Bft) 93,62 %
19.06.2016 08:00 12,8 C 14,4 C 13,3 C 93 % 0 lf 1022,8 hPa 0,0 l/m 0 min 0 min 154 W/m 12,6 km/h (3 Bft) 93,62 %
19.06.2016 08:02 12,8 C 14,4 C 13,3 C 93 % 0 lf 1022,8 hPa 0,0 l/m 0 min 0 min 157 W/m 10,5 km/h (2 Bft) 95,74 %
19.06.2016 08:04 12,8 C 14,4 C 13,9 C 93 % 0 lf 1022,8 hPa 0,0 l/m 0 min 0 min 155 W/m 8,4 km/h (2 Bft) 93,62 %
19.06.2016 08:06 12,8 C 15,0 C 13,9 C 93 % 0 lf 1022,8 hPa 0,0 l/m 0 min 0 min 151 W/m 18,8 km/h (3 Bft) 95,65 %
19.06.2016 08:08 12,9 C 15,0 C 13,9 C 93 % 0 lf 1022,8 hPa 0,0 l/m 0 min 0 min 150 W/m 12,6 km/h (3 Bft) 93,62 %
19.06.2016 08:10 12,9 C 14,4 C 13,9 C 93 % 0 lf 1022,8 hPa 0,0 l/m 0 min 0 min 161 W/m 14,6 km/h (3 Bft) 93,62 %
19.06.2016 08:12 12,9 C 15,0 C 13,9 C 93 % 0 lf 1022,8 hPa 0,0 l/m 0 min 0 min 173 W/m 18,8 km/h (3 Bft) 93,62 %
19.06.2016 08:14 12,9 C 15,0 C 13,9 C 93 % 0 lf 1022,8 hPa 0,0 l/m 0 min 0 min 173 W/m 16,7 km/h (3 Bft) 95,74 %
19.06.2016 08:16 12,9 C 15,0 C 13,9 C 92 % 0 lf 1022,9 hPa 0,0 l/m 0 min 0 min 176 W/m 12,6 km/h (3 Bft) 93,62 %
19.06.2016 08:18 13,0 C 15,0 C 13,9 C 92 % 0 lf 1022,8 hPa 0,0 l/m 0 min 0 min 170 W/m 12,6 km/h (3 Bft) 95,65 %
19.06.2016 08:20 13,0 C 15,0 C 13,9 C 92 % 0 lf 1022,9 hPa 0,0 l/m 0 min 0 min 174 W/m 10,5 km/h (2 Bft) 91,49 %
19.06.2016 08:22 13,1 C 15,0 C 13,9 C 92 % 0 lf 1022,9 hPa 0,0 l/m 0 min 0 min 193 W/m 12,6 km/h (3 Bft) 98,15 %
19.06.2016 08:24 13,1 C 15,0 C 13,9 C 92 % 0 lf 1022,9 hPa 0,0 l/m 0 min 0 min 188 W/m 16,7 km/h (3 Bft) 97,87 %
19.06.2016 08:26 13,1 C 15,6 C 13,9 C 92 % 0 lf 1022,9 hPa 0,0 l/m 0 min 0 min 196 W/m 8,4 km/h (2 Bft) 95,65 %
19.06.2016 08:28 13,2 C 15,6 C 14,4 C 92 % 0 lf 1022,9 hPa 0,0 l/m 0 min 0 min 199 W/m 10,5 km/h (2 Bft) 97,87 %
19.06.2016 08:30 13,2 C 15,6 C 14,4 C 92 % 0 lf 1022,9 hPa 0,0 l/m 0 min 0 min 206 W/m 10,5 km/h (2 Bft) 93,62 %
19.06.2016 08:32 13,2 C 16,1 C 14,4 C 92 % 0 lf 1023,0 hPa 0,0 l/m 0 min 0 min 199 W/m 16,7 km/h (3 Bft) 100,00 %
19.06.2016 08:34 13,3 C 16,1 C 14,4 C 92 % 0 lf 1023,1 hPa 0,0 l/m 0 min 0 min 181 W/m 12,6 km/h (3 Bft) 97,87 %
19.06.2016 08:36 13,3 C 15,6 C 14,4 C 91 % 0 lf 1023,0 hPa 0,0 l/m 0 min 0 min 161 W/m 14,6 km/h (3 Bft) 95,92 %
19.06.2016 08:38 13,3 C 15,6 C 14,4 C 91 % 0 lf 1023,1 hPa 0,0 l/m 0 min 0 min 168 W/m 8,4 km/h (2 Bft) 97,87 %
19.06.2016 08:40 13,4 C 15,6 C 14,4 C 91 % 0 lf 1023,1 hPa 0,0 l/m 0 min 0 min 172 W/m 10,5 km/h (2 Bft) 97,83 %
19.06.2016 08:42 13,4 C 15,6 C 14,4 C 91 % 0 lf 1023,1 hPa 0,0 l/m 0 min 0 min 170 W/m 8,4 km/h (2 Bft) 95,74 %
19.06.2016 08:44 13,4 C 15,6 C 14,4 C 90 % 0 lf 1023,1 hPa 0,0 l/m 0 min 0 min 182 W/m 14,6 km/h (3 Bft) 95,74 %
19.06.2016 08:46 13,5 C 15,6 C 14,4 C 90 % 0 lf 1023,1 hPa 0,0 l/m 0 min 0 min 191 W/m 12,6 km/h (3 Bft) 97,87 %
19.06.2016 08:48 13,5 C 15,6 C 14,4 C 90 % 0 lf 1023,2 hPa 0,0 l/m 0 min 0 min 195 W/m 10,5 km/h (2 Bft) 97,87 %
19.06.2016 08:50 13,5 C 15,6 C 14,4 C 90 % 0 lf 1023,2 hPa 0,0 l/m 0 min 0 min 195 W/m 14,6 km/h (3 Bft) 95,74 %
19.06.2016 08:52 13,5 C 15,6 C 14,4 C 90 % 0 lf 1023,2 hPa 0,0 l/m 0 min 0 min 210 W/m 12,6 km/h (3 Bft) 100,00 %
19.06.2016 08:54 13,5 C 15,6 C 14,4 C 89 % 0 lf 1023,2 hPa 0,0 l/m 0 min 0 min 236 W/m 16,7 km/h (3 Bft) 100,00 %
19.06.2016 08:56 13,6 C 15,6 C 14,4 C 89 % 0 lf 1023,2 hPa 0,0 l/m 2 min 0 min 254 W/m 12,6 km/h (3 Bft) 100,00 %
19.06.2016 08:58 13,6 C 16,1 C 14,4 C 89 % 0 lf 1023,2 hPa 0,0 l/m 2 min 0 min 251 W/m 12,6 km/h (3 Bft) 97,87 %
19.06.2016 09:00 13,7 C 16,1 C 15,0 C 89 % 0 lf 1023,3 hPa 0,0 l/m 0 min 0 min 235 W/m 14,6 km/h (3 Bft) 93,62 %
19.06.2016 09:02 13,7 C 16,1 C 15,0 C 89 % 0 lf 1023,2 hPa 0,0 l/m 0 min 0 min 208 W/m 10,5 km/h (2 Bft) 95,74 %
19.06.2016 09:04 13,7 C 16,1 C 15,0 C 89 % 0 lf 1023,2 hPa 0,0 l/m 0 min 0 min 220 W/m 12,6 km/h (3 Bft) 100,00 %
19.06.2016 09:06 13,7 C 16,7 C 15,0 C 89 % 0 lf 1023,2 hPa 0,0 l/m 0 min 0 min 251 W/m 12,6 km/h (3 Bft) 98,15 %
19.06.2016 09:08 13,8 C 16,7 C 15,6 C 89 % 0 lf 1023,2 hPa 0,0 l/m 2 min 0 min 281 W/m 12,6 km/h (3 Bft) 100,00 %
19.06.2016 09:10 13,8 C 17,2 C 15,6 C 89 % 0 lf 1023,3 hPa 0,0 l/m 2 min 0 min 302 W/m 16,7 km/h (3 Bft) 97,87 %
19.06.2016 09:12 13,9 C 16,7 C 15,6 C 89 % 0 lf 1023,3 hPa 0,0 l/m 2 min 0 min 264 W/m 14,6 km/h (3 Bft) 97,37 %
19.06.2016 09:14 13,9 C 16,7 C 15,6 C 88 % 0 lf 1023,3 hPa 0,0 l/m 2 min 0 min 271 W/m 10,5 km/h (2 Bft) 100,00 %
19.06.2016 09:16 14,0 C 17,2 C 16,1 C 89 % 0 lf 1023,3 hPa 0,0 l/m 2 min 0 min 323 W/m 8,4 km/h (2 Bft) 95,65 %
19.06.2016 09:18 14,1 C 17,8 C 16,1 C 89 % 0 lf 1023,3 hPa 0,0 l/m 2 min 0 min 331 W/m 8,4 km/h (2 Bft) 97,87 %
19.06.2016 09:20 14,2 C 18,3 C 15,6 C 89 % 0 lf 1023,3 hPa 0,0 l/m 0 min 0 min 262 W/m 18,8 km/h (3 Bft) 95,74 %
19.06.2016 09:22 14,2 C 17,2 C 15,6 C 88 % 0 lf 1023,3 hPa 0,0 l/m 0 min 0 min 190 W/m 16,7 km/h (3 Bft) 95,92 %
19.06.2016 09:24 14,2 C 16,7 C 15,6 C 88 % 0 lf 1023,5 hPa 0,0 l/m 0 min 0 min 194 W/m 14,6 km/h (3 Bft) 95,74 %
19.06.2016 09:26 14,2 C 16,7 C 15,6 C 87 % 0 lf 1023,4 hPa 0,0 l/m 0 min 0 min 247 W/m 12,6 km/h (3 Bft) 95,74 %
19.06.2016 09:28 14,2 C 16,7 C 15,6 C 87 % 0 lf 1023,5 hPa 0,0 l/m 2 min 0 min 281 W/m 10,5 km/h (2 Bft) 97,83 %
19.06.2016 09:30 14,2 C 16,7 C 16,1 C 87 % 0 lf 1023,5 hPa 0,0 l/m 2 min 0 min 301 W/m 14,6 km/h (3 Bft) 93,62 %
19.06.2016 09:32 14,2 C 16,7 C 15,6 C 86 % 0 lf 1023,5 hPa 0,0 l/m 2 min 0 min 311 W/m 16,7 km/h (3 Bft) 91,49 %
19.06.2016 09:34 14,2 C 17,2 C 15,6 C 86 % 0 lf 1023,5 hPa 0,0 l/m 2 min 0 min 321 W/m 14,6 km/h (3 Bft) 93,62 %
19.06.2016 09:36 14,2 C 18,3 C 16,1 C 86 % 0 lf 1023,5 hPa 0,0 l/m 2 min 0 min 371 W/m 8,4 km/h (2 Bft) 96,23 %
19.06.2016 09:38 14,3 C 18,3 C 16,7 C 86 % 0 lf 1023,5 hPa 0,0 l/m 2 min 0 min 379 W/m 16,7 km/h (3 Bft) 97,87 %
19.06.2016 09:40 14,3 C 18,3 C 16,7 C 85 % 0 lf 1023,5 hPa 0,0 l/m 2 min 0 min 399 W/m 16,7 km/h (3 Bft) 93,62 %
19.06.2016 09:42 14,3 C 18,3 C 16,7 C 85 % 0 lf 1023,6 hPa 0,0 l/m 2 min 0 min 341 W/m 18,8 km/h (3 Bft) 91,49 %
19.06.2016 09:44 14,4 C 18,9 C 16,7 C 85 % 0 lf 1023,5 hPa 0,0 l/m 2 min 0 min 354 W/m 18,8 km/h (3 Bft) 95,74 %
19.06.2016 09:46 14,4 C 18,3 C 16,7 C 84 % 0 lf 1023,5 hPa 0,0 l/m 2 min 0 min 360 W/m 20,9 km/h (4 Bft) 91,49 %
19.06.2016 09:48 14,4 C 18,9 C 16,7 C 84 % 0 lf 1023,6 hPa 0,0 l/m 2 min 0 min 448 W/m 16,7 km/h (3 Bft) 93,48 %
19.06.2016 09:50 14,4 C 19,4 C 16,7 C 83 % 0 lf 1023,6 hPa 0,0 l/m 2 min 0 min 458 W/m 16,7 km/h (3 Bft) 95,74 %
19.06.2016 09:52 14,5 C 19,4 C 16,7 C 83 % 0 lf 1023,5 hPa 0,0 l/m 2 min 0 min 506 W/m 12,6 km/h (3 Bft) 94,74 %
19.06.2016 09:54 14,6 C 19,4 C 16,1 C 83 % 0 lf 1023,5 hPa 0,0 l/m 2 min 0 min 416 W/m 18,8 km/h (3 Bft) 95,74 %
19.06.2016 09:56 14,6 C 19,4 C 16,7 C 83 % 0 lf 1023,6 hPa 0,0 l/m 2 min 0 min 410 W/m 14,6 km/h (3 Bft) 95,74 %
19.06.2016 09:58 14,7 C 19,4 C 16,7 C 84 % 0 lf 1023,5 hPa 0,0 l/m 2 min 0 min 381 W/m 12,6 km/h (3 Bft) 95,74 %
19.06.2016 10:00 14,7 C 18,9 C 16,7 C 83 % 0 lf 1023,5 hPa 0,0 l/m 0 min 0 min 310 W/m 12,6 km/h (3 Bft) 91,49 %
19.06.2016 10:02 14,7 C 18,3 C 16,1 C 83 % 0 lf 1023,6 hPa 0,0 l/m 0 min 0 min 288 W/m 14,6 km/h (3 Bft) 93,62 %
19.06.2016 10:04 14,7 C 18,3 C 16,1 C 83 % 0 lf 1023,6 hPa 0,0 l/m 0 min 0 min 291 W/m 12,6 km/h (3 Bft) 100,00 %
19.06.2016 10:06 14,8 C 18,3 C 16,7 C 83 % 0 lf 1023,6 hPa 0,0 l/m 0 min 0 min 278 W/m 20,9 km/h (4 Bft) 97,96 %
19.06.2016 10:08 14,8 C 17,8 C 16,1 C 83 % 0 lf 1023,6 hPa 0,0 l/m 0 min 0 min 262 W/m 18,8 km/h (3 Bft) 97,92 %
19.06.2016 10:10 14,8 C 17,8 C 16,1 C 83 % 0 lf 1023,7 hPa 0,0 l/m 0 min 0 min 256 W/m 10,5 km/h (2 Bft) 97,87 %
19.06.2016 10:12 14,8 C 17,2 C 16,1 C 83 % 0 lf 1023,7 hPa 0,0 l/m 0 min 0 min 268 W/m 23,0 km/h (4 Bft) 100,00 %
19.06.2016 10:14 14,9 C 17,2 C 16,1 C 83 % 0 lf 1023,7 hPa 0,0 l/m 0 min 0 min 272 W/m 18,8 km/h (3 Bft) 100,00 %
19.06.2016 10:16 14,9 C 16,7 C 16,1 C 83 % 0 lf 1023,7 hPa 0,0 l/m 0 min 0 min 264 W/m 12,6 km/h (3 Bft) 97,87 %
19.06.2016 10:18 14,9 C 17,2 C 16,1 C 83 % 0 lf 1023,7 hPa 0,0 l/m 0 min 0 min 258 W/m 10,5 km/h (2 Bft) 100,00 %
19.06.2016 10:20 14,9 C 17,2 C 16,1 C 83 % 0 lf 1023,8 hPa 0,0 l/m 0 min 0 min 261 W/m 8,4 km/h (2 Bft) 97,87 %
19.06.2016 10:22 14,9 C 16,7 C 16,1 C 83 % 0 lf 1023,8 hPa 0,0 l/m 0 min 0 min 268 W/m 14,6 km/h (3 Bft) 97,87 %
19.06.2016 10:24 14,9 C 16,7 C 16,1 C 82 % 0 lf 1023,8 hPa 0,0 l/m 0 min 0 min 276 W/m 16,7 km/h (3 Bft) 97,83 %
19.06.2016 10:26 14,9 C 16,7 C 16,1 C 82 % 0 lf 1023,8 hPa 0,0 l/m 0 min 0 min 289 W/m 16,7 km/h (3 Bft) 100,00 %
19.06.2016 10:28 14,8 C 17,2 C 16,1 C 81 % 0 lf 1023,8 hPa 0,0 l/m 0 min 0 min 293 W/m 14,6 km/h (3 Bft) 100,00 %
19.06.2016 10:30 14,8 C 16,7 C 16,1 C 81 % 0 lf 1023,8 hPa 0,0 l/m 0 min 0 min 289 W/m 14,6 km/h (3 Bft) 93,62 %
19.06.2016 10:32 14,8 C 17,2 C 16,1 C 81 % 0 lf 1023,8 hPa 0,0 l/m 0 min 0 min 284 W/m 16,7 km/h (3 Bft) 97,62 %
19.06.2016 10:34 14,8 C 17,2 C 16,7 C 82 % 0 lf 1023,8 hPa 0,0 l/m 0 min 0 min 282 W/m 20,9 km/h (4 Bft) 100,00 %
19.06.2016 10:36 14,9 C 17,2 C 16,1 C 82 % 0 lf 1023,8 hPa 0,0 l/m 0 min 0 min 257 W/m 16,7 km/h (3 Bft) 98,00 %
19.06.2016 10:38 14,9 C 17,2 C 16,1 C 81 % 0 lf 1023,8 hPa 0,0 l/m 0 min 0 min 232 W/m 14,6 km/h (3 Bft) 97,83 %
19.06.2016 10:40 14,8 C 16,7 C 15,6 C 81 % 0 lf 1023,9 hPa 0,0 l/m 0 min 0 min 212 W/m 20,9 km/h (4 Bft) 95,74 %
19.06.2016 10:42 14,8 C 16,7 C 15,6 C 81 % 0 lf 1023,9 hPa 0,0 l/m 0 min 0 min 226 W/m 14,6 km/h (3 Bft) 97,96 %
19.06.2016 10:44 14,8 C 16,7 C 16,1 C 81 % 0 lf 1023,9 hPa 0,0 l/m 0 min 0 min 251 W/m 14,6 km/h (3 Bft) 97,87 %
19.06.2016 10:46 14,8 C 17,2 C 16,1 C 82 % 0 lf 1023,9 hPa 0,0 l/m 0 min 0 min 271 W/m 12,6 km/h (3 Bft) 97,87 %
19.06.2016 10:48 14,8 C 17,2 C 16,1 C 81 % 0 lf 1023,9 hPa 0,0 l/m 0 min 0 min 287 W/m 10,5 km/h (2 Bft) 100,00 %
19.06.2016 10:50 14,8 C 17,2 C 16,1 C 82 % 0 lf 1023,9 hPa 0,0 l/m 0 min 0 min 296 W/m 16,7 km/h (3 Bft) 97,87 %
19.06.2016 10:52 14,8 C 17,8 C 16,1 C 81 % 0 lf 1023,9 hPa 0,0 l/m 0 min 0 min 295 W/m 14,6 km/h (3 Bft) 95,74 %
19.06.2016 10:54 14,8 C 17,8 C 16,7 C 81 % 0 lf 1024,0 hPa 0,0 l/m 0 min 0 min 300 W/m 10,5 km/h (2 Bft) 97,87 %
19.06.2016 10:56 14,9 C 18,3 C 16,7 C 82 % 0 lf 1023,9 hPa 0,0 l/m 0 min 0 min 302 W/m 8,4 km/h (2 Bft) 97,87 %
19.06.2016 10:58 14,9 C 17,8 C 16,7 C 82 % 0 lf 1024,0 hPa 0,0 l/m 0 min 0 min 302 W/m 14,6 km/h (3 Bft) 97,87 %
19.06.2016 11:00 14,9 C 17,8 C 16,7 C 82 % 0 lf 1023,9 hPa 0,0 l/m 0 min 0 min 300 W/m 12,6 km/h (3 Bft) 93,48 %
19.06.2016 11:02 15,0 C 18,3 C 17,2 C 82 % 0 lf 1023,9 hPa 0,0 l/m 0 min 0 min 299 W/m 12,6 km/h (3 Bft) 97,87 %
19.06.2016 11:04 15,0 C 17,8 C 16,7 C 81 % 0 lf 1024,0 hPa 0,0 l/m 0 min 0 min 287 W/m 12,6 km/h (3 Bft) 100,00 %
19.06.2016 11:06 15,0 C 17,2 C 16,7 C 81 % 0 lf 1024,0 hPa 0,0 l/m 0 min 0 min 273 W/m 14,6 km/h (3 Bft) 94,44 %
19.06.2016 11:08 15,0 C 17,2 C 16,7 C 81 % 0 lf 1024,0 hPa 0,0 l/m 0 min 0 min 271 W/m 14,6 km/h (3 Bft) 97,87 %
19.06.2016 11:10 15,1 C 17,2 C 16,7 C 81 % 0 lf 1024,0 hPa 0,0 l/m 0 min 0 min 290 W/m 14,6 km/h (3 Bft) 93,62 %
19.06.2016 11:12 15,1 C 17,2 C 16,7 C 80 % 0 lf 1023,9 hPa 0,0 l/m 0 min 0 min 299 W/m 18,8 km/h (3 Bft) 97,96 %
19.06.2016 11:14 15,1 C 17,2 C 16,7 C 80 % 0 lf 1024,0 hPa 0,0 l/m 0 min 0 min 315 W/m 16,7 km/h (3 Bft) 95,74 %
19.06.2016 11:16 15,1 C 17,2 C 16,7 C 80 % 0 lf 1024,0 hPa 0,0 l/m 0 min 0 min 343 W/m 14,6 km/h (3 Bft) 95,74 %
19.06.2016 11:18 15,1 C 17,8 C 17,2 C 79 % 0 lf 1024,0 hPa 0,0 l/m 0 min 0 min 367 W/m 12,6 km/h (3 Bft) 97,87 %
19.06.2016 11:20 15,0 C 17,8 C 16,7 C 78 % 0 lf 1024,0 hPa 0,0 l/m 2 min 0 min 383 W/m 16,7 km/h (3 Bft) 95,74 %
19.06.2016 11:22 15,0 C 18,3 C 17,2 C 78 % 0 lf 1024,0 hPa 0,0 l/m 2 min 0 min 386 W/m 12,6 km/h (3 Bft) 93,88 %
19.06.2016 11:24 15,0 C 18,3 C 17,2 C 78 % 0 lf 1024,0 hPa 0,0 l/m 0 min 0 min 375 W/m 10,5 km/h (2 Bft) 95,65 %
19.06.2016 11:26 15,0 C 18,3 C 17,2 C 78 % 0 lf 1024,0 hPa 0,0 l/m 0 min 0 min 362 W/m 16,7 km/h (3 Bft) 93,62 %
19.06.2016 11:28 15,1 C 18,3 C 17,2 C 79 % 0 lf 1024,0 hPa 0,0 l/m 0 min 0 min 335 W/m 16,7 km/h (3 Bft) 95,74 %
19.06.2016 11:30 15,1 C 18,3 C 17,2 C 79 % 0 lf 1024,0 hPa 0,0 l/m 0 min 0 min 345 W/m 16,7 km/h (3 Bft) 95,74 %
19.06.2016 11:32 15,1 C 18,3 C 17,2 C 79 % 0 lf 1024,0 hPa 0,0 l/m 0 min 0 min 364 W/m 14,6 km/h (3 Bft) 97,87 %
19.06.2016 11:34 15,1 C 18,3 C 17,2 C 79 % 0 lf 1024,0 hPa 0,0 l/m 0 min 0 min 385 W/m 8,4 km/h (2 Bft) 95,74 %
19.06.2016 11:36 15,2 C 18,9 C 17,8 C 80 % 0 lf 1024,1 hPa 0,0 l/m 2 min 0 min 406 W/m 6,3 km/h (2 Bft) 95,65 %
19.06.2016 11:38 15,2 C 19,4 C 18,3 C 80 % 0 lf 1024,0 hPa 0,0 l/m 2 min 0 min 434 W/m 14,6 km/h (3 Bft) 93,62 %
19.06.2016 11:40 15,3 C 20,0 C 18,9 C 79 % 0 lf 1024,0 hPa 0,0 l/m 2 min 0 min 477 W/m 12,6 km/h (3 Bft) 93,62 %
19.06.2016 11:42 15,3 C 20,0 C 18,9 C 80 % 0 lf 1024,0 hPa 0,0 l/m 2 min 0 min 520 W/m 10,5 km/h (2 Bft) 95,74 %
19.06.2016 11:44 15,4 C 21,1 C 20,0 C 79 % 0 lf 1024,0 hPa 0,0 l/m 2 min 0 min 564 W/m 8,4 km/h (2 Bft) 95,74 %
19.06.2016 11:46 15,6 C 22,2 C 20,0 C 80 % 0 lf 1024,0 hPa 0,0 l/m 2 min 0 min 629 W/m 14,6 km/h (3 Bft) 93,48 %
19.06.2016 11:48 15,6 C 22,8 C 20,0 C 79 % 0 lf 1024,0 hPa 0,0 l/m 2 min 0 min 591 W/m 12,6 km/h (3 Bft) 97,87 %
19.06.2016 11:50 15,7 C 23,3 C 20,0 C 79 % 0 lf 1024,0 hPa 0,0 l/m 2 min 0 min 552 W/m 12,6 km/h (3 Bft) 93,62 %
19.06.2016 11:52 15,8 C 23,3 C 20,0 C 79 % 0 lf 1024,0 hPa 0,0 l/m 2 min 0 min 541 W/m 14,6 km/h (3 Bft) 95,24 %
19.06.2016 11:54 15,8 C 22,2 C 19,4 C 77 % 0 lf 1024,0 hPa 0,0 l/m 2 min 0 min 516 W/m 18,8 km/h (3 Bft) 95,74 %
19.06.2016 11:56 15,9 C 22,2 C 20,0 C 76 % 0 lf 1024,0 hPa 0,0 l/m 2 min 0 min 590 W/m 14,6 km/h (3 Bft) 97,87 %
19.06.2016 11:58 15,9 C 22,8 C 20,0 C 76 % 0 lf 1024,0 hPa 0,0 l/m 2 min 0 min 592 W/m 8,4 km/h (2 Bft) 93,62 %
19.06.2016 12:00 16,1 C 23,3 C 20,0 C 77 % 0 lf 1024,0 hPa 0,0 l/m 2 min 0 min 562 W/m 10,5 km/h (2 Bft) 95,65 %
19.06.2016 12:02 16,1 C 23,3 C 20,0 C 76 % 0 lf 1024,0 hPa 0,0 l/m 2 min 0 min 613 W/m 10,5 km/h (2 Bft) 91,49 %
19.06.2016 12:04 16,2 C 24,4 C 21,1 C 75 % 0 lf 1024,0 hPa 0,0 l/m 2 min 0 min 731 W/m 8,4 km/h (2 Bft) 89,58 %
19.06.2016 12:06 16,3 C 25,0 C 21,7 C 77 % 0 lf 1024,0 hPa 0,0 l/m 2 min 0 min 731 W/m 10,5 km/h (2 Bft) 94,00 %
19.06.2016 12:08 16,4 C 25,6 C 21,7 C 76 % 0 lf 1024,1 hPa 0,0 l/m 2 min 0 min 731 W/m 10,5 km/h (2 Bft) 91,49 %
19.06.2016 12:10 16,5 C 25,6 C 21,1 C 74 % 0 lf 1024,1 hPa 0,0 l/m 2 min 0 min 545 W/m 10,5 km/h (2 Bft) 89,13 %
19.06.2016 12:12 16,6 C 25,6 C 21,7 C 74 % 0 lf 1024,1 hPa 0,0 l/m 2 min 0 min 944 W/m 14,6 km/h (3 Bft) 91,49 %
19.06.2016 12:14 16,7 C 23,9 C 21,1 C 74 % 0 lf 1024,0 hPa 0,0 l/m 2 min 0 min 436 W/m 8,4 km/h (2 Bft) 95,74 %
19.06.2016 12:16 16,8 C 23,3 C 20,6 C 73 % 0 lf 1024,0 hPa 0,0 l/m 0 min 0 min 407 W/m 18,8 km/h (3 Bft) 97,87 %
19.06.2016 12:18 16,8 C 22,2 C 19,4 C 71 % 0 lf 1024,0 hPa 0,0 l/m 0 min 0 min 399 W/m 14,6 km/h (3 Bft) 93,62 %
19.06.2016 12:20 16,8 C 21,1 C 18,9 C 71 % 0 lf 1024,0 hPa 0,0 l/m 0 min 0 min 381 W/m 12,6 km/h (3 Bft) 97,87 %
19.06.2016 12:22 16,8 C 21,1 C 18,9 C 71 % 0 lf 1024,0 hPa 0,0 l/m 0 min 0 min 401 W/m 6,3 km/h (2 Bft) 95,83 %
19.06.2016 12:24 16,8 C 20,6 C 18,9 C 72 % 0 lf 1024,0 hPa 0,0 l/m 2 min 0 min 423 W/m 12,6 km/h (3 Bft) 95,65 %
19.06.2016 12:26 16,8 C 22,8 C 20,0 C 73 % 0 lf 1024,1 hPa 0,0 l/m 2 min 0 min 494 W/m 14,6 km/h (3 Bft) 95,74 %
19.06.2016 12:28 16,9 C 25,0 C 21,1 C 74 % 0 lf 1024,0 hPa 0,0 l/m 2 min 0 min 888 W/m 14,6 km/h (3 Bft) 95,74 %
19.06.2016 12:30 17,0 C 25,0 C 22,2 C 72 % 0 lf 1024,0 hPa 0,0 l/m 2 min 0 min 903 W/m 10,5 km/h (2 Bft) 97,87 %
19.06.2016 12:32 17,1 C 24,4 C 22,8 C 71 % 0 lf 1024,0 hPa 0,0 l/m 2 min 0 min 798 W/m 8,4 km/h (2 Bft) 97,14 %
19.06.2016 12:34 17,1 C 23,9 C 22,2 C 71 % 0 lf 1024,0 hPa 0,0 l/m 2 min 0 min 737 W/m 12,6 km/h (3 Bft) 95,74 %
19.06.2016 12:36 17,2 C 23,3 C 20,6 C 70 % 0 lf 1024,0 hPa 0,0 l/m 2 min 0 min 554 W/m 16,7 km/h (3 Bft) 96,30 %
19.06.2016 12:38 17,2 C 21,7 C 20,0 C 70 % 0 lf 1024,0 hPa 0,0 l/m 0 min 0 min 312 W/m 14,6 km/h (3 Bft) 95,74 %
19.06.2016 12:40 17,3 C 20,0 C 18,9 C 69 % 0 lf 1024,0 hPa 0,0 l/m 0 min 0 min 306 W/m 12,6 km/h (3 Bft) 97,87 %
19.06.2016 12:42 17,3 C 20,0 C 18,9 C 70 % 0 lf 1024,1 hPa 0,0 l/m 0 min 0 min 307 W/m 14,6 km/h (3 Bft) 95,74 %
19.06.2016 12:44 17,3 C 20,0 C 18,9 C 71 % 0 lf 1024,1 hPa 0,0 l/m 0 min 0 min 314 W/m 10,5 km/h (2 Bft) 97,87 %
19.06.2016 12:46 17,3 C 19,4 C 18,9 C 72 % 0 lf 1024,1 hPa 0,0 l/m 0 min 0 min 357 W/m 12,6 km/h (3 Bft) 97,83 %
19.06.2016 12:48 17,3 C 21,7 C 18,9 C 72 % 0 lf 1024,0 hPa 0,0 l/m 2 min 0 min 468 W/m 14,6 km/h (3 Bft) 97,87 %
19.06.2016 12:50 17,3 C 23,9 C 20,6 C 72 % 0 lf 1024,1 hPa 0,0 l/m 2 min 0 min 1134 W/m 14,6 km/h (3 Bft) 97,87 %
19.06.2016 12:52 17,4 C 23,3 C 20,0 C 72 % 0 lf 1024,1 hPa 0,0 l/m 2 min 0 min 947 W/m 16,7 km/h (3 Bft) 100,00 %
19.06.2016 12:54 17,4 C 24,4 C 20,0 C 72 % 0 lf 1024,0 hPa 0,0 l/m 2 min 0 min 519 W/m 16,7 km/h (3 Bft) 100,00 %
19.06.2016 12:56 17,5 C 25,0 C 20,0 C 72 % 0 lf 1024,0 hPa 0,0 l/m 2 min 0 min 895 W/m 12,6 km/h (3 Bft) 100,00 %
19.06.2016 12:58 17,6 C 26,1 C 20,6 C 71 % 0 lf 1024,0 hPa 0,0 l/m 2 min 0 min 1136 W/m 10,5 km/h (2 Bft) 93,48 %
19.06.2016 13:00 17,7 C 27,8 C 21,7 C 71 % 0 lf 1024,1 hPa 0,0 l/m 2 min 0 min 1151 W/m 16,7 km/h (3 Bft) 95,74 %
19.06.2016 13:02 17,8 C 27,2 C 23,3 C 70 % 0 lf 1024,1 hPa 0,0 l/m 2 min 0 min 1160 W/m 14,6 km/h (3 Bft) 95,92 %
19.06.2016 13:04 17,8 C 24,4 C 22,8 C 69 % 0 lf 1024,0 hPa 0,0 l/m 2 min 0 min 640 W/m 16,7 km/h (3 Bft) 95,65 %
19.06.2016 13:06 17,9 C 22,8 C 21,1 C 67 % 0 lf 1024,0 hPa 0,0 l/m 0 min 0 min 408 W/m 4,2 km/h (1 Bft) 100,00 %
19.06.2016 13:08 17,9 C 22,2 C 20,6 C 67 % 0 lf 1024,0 hPa 0,0 l/m 0 min 0 min 345 W/m 12,6 km/h (3 Bft) 97,87 %
19.06.2016 13:10 17,9 C 20,6 C 19,4 C 67 % 0 lf 1024,1 hPa 0,0 l/m 0 min 0 min 309 W/m 10,5 km/h (2 Bft) 100,00 %
19.06.2016 13:12 17,9 C 20,6 C 19,4 C 67 % 0 lf 1024,1 hPa 0,0 l/m 0 min 0 min 277 W/m 12,6 km/h (3 Bft) 100,00 %
19.06.2016 13:14 17,9 C 20,6 C 18,9 C 69 % 0 lf 1024,1 hPa 0,0 l/m 0 min 0 min 264 W/m 10,5 km/h (2 Bft) 95,74 %
19.06.2016 13:16 17,8 C 20,0 C 18,3 C 67 % 0 lf 1024,1 hPa 0,0 l/m 0 min 0 min 254 W/m 12,6 km/h (3 Bft) 100,00 %
19.06.2016 13:18 17,8 C 19,4 C 17,8 C 66 % 0 lf 1024,1 hPa 0,0 l/m 0 min 0 min 258 W/m 10,5 km/h (2 Bft) 100,00 %
19.06.2016 13:20 17,7 C 19,4 C 17,8 C 66 % 0 lf 1024,1 hPa 0,0 l/m 0 min 0 min 265 W/m 12,6 km/h (3 Bft) 100,00 %
19.06.2016 13:22 17,6 C 19,4 C 17,8 C 66 % 0 lf 1024,1 hPa 0,0 l/m 0 min 0 min 290 W/m 10,5 km/h (2 Bft) 100,00 %
19.06.2016 13:24 17,5 C 19,4 C 17,8 C 66 % 0 lf 1024,0 hPa 0,0 l/m 0 min 0 min 328 W/m 10,5 km/h (2 Bft) 97,87 %
19.06.2016 13:26 17,4 C 20,0 C 17,8 C 67 % 0 lf 1024,1 hPa 0,0 l/m 0 min 0 min 353 W/m 14,6 km/h (3 Bft) 100,00 %
19.06.2016 13:28 17,3 C 20,0 C 18,3 C 69 % 0 lf 1024,1 hPa 0,0 l/m 0 min 0 min 373 W/m 10,5 km/h (2 Bft) 100,00 %
19.06.2016 13:30 17,3 C 20,0 C 18,9 C 68 % 0 lf 1024,1 hPa 0,0 l/m 0 min 0 min 399 W/m 10,5 km/h (2 Bft) 100,00 %
19.06.2016 13:32 17,2 C 20,6 C 18,9 C 67 % 0 lf 1024,1 hPa 0,0 l/m 0 min 0 min 390 W/m 10,5 km/h (2 Bft) 97,87 %
19.06.2016 13:34 17,2 C 20,6 C 18,3 C 68 % 0 lf 1024,2 hPa 0,0 l/m 0 min 0 min 348 W/m 14,6 km/h (3 Bft) 97,87 %
19.06.2016 13:36 17,2 C 20,6 C 18,3 C 69 % 0 lf 1024,1 hPa 0,0 l/m 0 min 0 min 399 W/m 14,6 km/h (3 Bft) 97,87 %
19.06.2016 13:38 17,1 C 21,7 C 18,3 C 67 % 0 lf 1024,1 hPa 0,0 l/m 2 min 0 min 520 W/m 10,5 km/h (2 Bft) 100,00 %
19.06.2016 13:40 17,1 C 22,8 C 18,9 C 68 % 0 lf 1024,1 hPa 0,0 l/m 2 min 0 min 602 W/m 12,6 km/h (3 Bft) 100,00 %
19.06.2016 13:42 17,2 C 23,3 C 19,4 C 69 % 0 lf 1024,1 hPa 0,0 l/m 2 min 0 min 637 W/m 14,6 km/h (3 Bft) 97,87 %
19.06.2016 13:44 17,2 C 23,9 C 19,4 C 68 % 0 lf 1024,1 hPa 0,0 l/m 2 min 0 min 603 W/m 8,4 km/h (2 Bft) 95,74 %
19.06.2016 13:46 17,2 C 23,9 C 20,0 C 69 % 0 lf 1024,1 hPa 0,0 l/m 2 min 0 min 519 W/m 4,2 km/h (1 Bft) 95,74 %
19.06.2016 13:48 17,3 C 25,0 C 20,6 C 70 % 0 lf 1024,1 hPa 0,0 l/m 2 min 0 min 662 W/m 18,8 km/h (3 Bft) 97,87 %
19.06.2016 13:50 17,3 C 25,6 C 21,1 C 69 % 0 lf 1024,2 hPa 0,0 l/m 2 min 0 min 698 W/m 20,9 km/h (4 Bft) 97,87 %
19.06.2016 13:52 17,4 C 25,0 C 21,1 C 69 % 0 lf 1024,1 hPa 0,0 l/m 2 min 0 min 743 W/m 8,4 km/h (2 Bft) 97,83 %
19.06.2016 13:54 17,6 C 25,0 C 21,1 C 69 % 0 lf 1024,1 hPa 0,0 l/m 2 min 0 min 469 W/m 10,5 km/h (2 Bft) 95,74 %
19.06.2016 13:56 17,6 C 24,4 C 21,1 C 68 % 0 lf 1024,1 hPa 0,0 l/m 2 min 0 min 523 W/m 10,5 km/h (2 Bft) 95,74 %
19.06.2016 13:58 17,7 C 23,9 C 20,6 C 68 % 0 lf 1024,1 hPa 0,0 l/m 0 min 0 min 380 W/m 4,2 km/h (1 Bft) 95,74 %
19.06.2016 14:00 17,7 C 23,3 C 20,6 C 68 % 0 lf 1024,1 hPa 0,0 l/m 0 min 0 min 358 W/m 4,2 km/h (1 Bft) 93,62 %
19.06.2016 14:02 17,8 C 22,8 C 20,6 C 67 % 0 lf 1024,1 hPa 0,0 l/m 0 min 0 min 373 W/m 14,6 km/h (3 Bft) 95,65 %
19.06.2016 14:04 17,8 C 21,1 C 20,0 C 67 % 0 lf 1024,1 hPa 0,0 l/m 0 min 0 min 378 W/m 20,9 km/h (4 Bft) 95,74 %
19.06.2016 14:06 17,8 C 21,7 C 20,0 C 65 % 0 lf 1024,1 hPa 0,0 l/m 0 min 0 min 397 W/m 14,6 km/h (3 Bft) 93,62 %
19.06.2016 14:08 17,8 C 22,8 C 21,1 C 66 % 0 lf 1024,2 hPa 0,0 l/m 2 min 0 min 548 W/m 12,6 km/h (3 Bft) 93,62 %
19.06.2016 14:10 17,8 C 22,2 C 20,6 C 66 % 0 lf 1024,1 hPa 0,0 l/m 2 min 0 min 516 W/m 25,1 km/h (4 Bft) 95,74 %
19.06.2016 14:12 17,8 C 22,2 C 20,6 C 68 % 0 lf 1024,1 hPa 0,0 l/m 0 min 0 min 378 W/m 14,6 km/h (3 Bft) 93,62 %
19.06.2016 14:14 17,8 C 22,2 C 20,6 C 68 % 0 lf 1024,1 hPa 0,0 l/m 0 min 0 min 406 W/m 14,6 km/h (3 Bft) 93,48 %
19.06.2016 14:16 17,8 C 21,7 C 20,6 C 68 % 0 lf 1024,1 hPa 0,0 l/m 0 min 0 min 404 W/m 16,7 km/h (3 Bft) 93,62 %
19.06.2016 14:18 17,9 C 22,2 C 20,6 C 68 % 0 lf 1024,1 hPa 0,0 l/m 2 min 0 min 472 W/m 18,8 km/h (3 Bft) 95,74 %
19.06.2016 14:20 17,9 C 22,2 C 20,6 C 68 % 0 lf 1024,1 hPa 0,0 l/m 2 min 0 min 475 W/m 18,8 km/h (3 Bft) 95,74 %
19.06.2016 14:22 17,8 C 22,8 C 20,6 C 66 % 0 lf 1024,1 hPa 0,0 l/m 2 min 0 min 510 W/m 16,7 km/h (3 Bft) 95,83 %
19.06.2016 14:24 17,9 C 23,9 C 22,8 C 66 % 0 lf 1024,1 hPa 0,0 l/m 2 min 0 min 543 W/m 12,6 km/h (3 Bft) 91,49 %
19.06.2016 14:26 17,9 C 26,1 C 24,4 C 68 % 0 lf 1024,2 hPa 0,0 l/m 2 min 0 min 728 W/m 14,6 km/h (3 Bft) 91,30 %
19.06.2016 14:28 18,1 C 27,2 C 26,1 C 68 % 0 lf 1024,1 hPa 0,0 l/m 2 min 0 min 1066 W/m 12,6 km/h (3 Bft) 93,62 %
19.06.2016 14:30 18,2 C 27,2 C 27,2 C 68 % 0 lf 1024,1 hPa 0,0 l/m 2 min 0 min 1120 W/m 18,8 km/h (3 Bft) 91,49 %
19.06.2016 14:32 18,4 C 28,3 C 28,9 C 69 % 0 lf 1024,1 hPa 0,0 l/m 2 min 0 min 1067 W/m 12,6 km/h (3 Bft) 93,62 %
19.06.2016 14:34 18,5 C 29,4 C 29,4 C 68 % 0 lf 1024,1 hPa 0,0 l/m 2 min 0 min 1074 W/m 10,5 km/h (2 Bft) 95,74 %
19.06.2016 14:36 18,7 C 30,0 C 30,6 C 69 % 0 lf 1024,1 hPa 0,0 l/m 2 min 0 min 1224 W/m 8,4 km/h (2 Bft) 89,36 %
19.06.2016 14:38 19,0 C 30,0 C 31,1 C 69 % 0 lf 1024,1 hPa 0,0 l/m 2 min 0 min 1288 W/m 10,5 km/h (2 Bft) 93,48 %
19.06.2016 14:40 19,2 C 26,1 C 27,8 C 66 % 0 lf 1024,2 hPa 0,0 l/m 2 min 0 min 1220 W/m 16,7 km/h (3 Bft) 89,36 %
19.06.2016 14:42 19,2 C 26,1 C 27,2 C 63 % 0 lf 1024,2 hPa 0,0 l/m 2 min 0 min 455 W/m 12,6 km/h (3 Bft) 93,62 %
19.06.2016 14:44 19,3 C 26,1 C 27,8 C 65 % 0 lf 1024,2 hPa 0,0 l/m 2 min 0 min 450 W/m 18,8 km/h (3 Bft) 93,62 %
19.06.2016 14:46 19,4 C 26,7 C 26,7 C 64 % 0 lf 1024,2 hPa 0,0 l/m 2 min 0 min 478 W/m 16,7 km/h (3 Bft) 89,36 %
19.06.2016 14:48 19,5 C 26,1 C 25,6 C 65 % 0 lf 1024,2 hPa 0,0 l/m 2 min 0 min 501 W/m 10,5 km/h (2 Bft) 91,49 %
19.06.2016 14:50 19,5 C 25,6 C 23,9 C 64 % 0 lf 1024,1 hPa 0,0 l/m 0 min 0 min 404 W/m 6,3 km/h (2 Bft) 91,30 %
19.06.2016 14:52 19,6 C 25,6 C 23,3 C 64 % 0 lf 1024,2 hPa 0,0 l/m 0 min 0 min 379 W/m 10,5 km/h (2 Bft) 91,49 %
19.06.2016 14:54 19,6 C 25,0 C 23,3 C 62 % 0 lf 1024,1 hPa 0,0 l/m 2 min 0 min 653 W/m 16,7 km/h (3 Bft) 91,49 %
19.06.2016 14:56 19,5 C 24,4 C 22,2 C 62 % 0 lf 1024,0 hPa 0,0 l/m 2 min 0 min 590 W/m 20,9 km/h (4 Bft) 91,49 %
19.06.2016 14:58 19,5 C 22,2 C 22,8 C 63 % 0 lf 1024,0 hPa 0,0 l/m 0 min 0 min 357 W/m 10,5 km/h (2 Bft) 91,49 %
19.06.2016 15:00 19,4 C 22,2 C 21,7 C 64 % 0 lf 1024,0 hPa 0,0 l/m 0 min 0 min 303 W/m 6,3 km/h (2 Bft) 95,74 %
19.06.2016 15:02 19,4 C 22,2 C 21,1 C 65 % 0 lf 1024,0 hPa 0,0 l/m 0 min 0 min 293 W/m 20,9 km/h (4 Bft) 97,83 %
19.06.2016 15:04 19,4 C 25,0 C 24,4 C 63 % 0 lf 1023,9 hPa 0,0 l/m 2 min 0 min 704 W/m 18,8 km/h (3 Bft) 95,74 %
19.06.2016 15:06 19,3 C 26,7 C 26,7 C 62 % 0 lf 1023,9 hPa 0,0 l/m 2 min 0 min 1022 W/m 14,6 km/h (3 Bft) 93,62 %
19.06.2016 15:08 19,3 C 28,3 C 27,2 C 64 % 0 lf 1023,9 hPa 0,0 l/m 2 min 0 min 1030 W/m 12,6 km/h (3 Bft) 95,74 %
19.06.2016 15:10 19,4 C 26,7 C 25,6 C 65 % 0 lf 1023,9 hPa 0,0 l/m 2 min 0 min 590 W/m 12,6 km/h (3 Bft) 89,36 %
19.06.2016 15:12 19,4 C 24,4 C 23,9 C 62 % 0 lf 1023,9 hPa 0,0 l/m 0 min 0 min 317 W/m 12,6 km/h (3 Bft) 95,65 %
19.06.2016 15:14 19,3 C 22,8 C 21,7 C 63 % 0 lf 1024,0 hPa 0,0 l/m 0 min 0 min 248 W/m 12,6 km/h (3 Bft) 95,74 %
19.06.2016 15:16 19,3 C 21,7 C 21,1 C 63 % 0 lf 1024,0 hPa 0,0 l/m 0 min 0 min 241 W/m 10,5 km/h (2 Bft) 97,87 %
19.06.2016 15:18 19,2 C 22,8 C 21,7 C 62 % 0 lf 1024,0 hPa 0,0 l/m 0 min 0 min 254 W/m 6,3 km/h (2 Bft) 100,00 %
19.06.2016 15:20 19,1 C 22,8 C 22,2 C 62 % 0 lf 1024,0 hPa 0,0 l/m 0 min 0 min 262 W/m 14,6 km/h (3 Bft) 95,74 %
19.06.2016 15:22 19,1 C 21,7 C 21,7 C 62 % 0 lf 1024,0 hPa 0,0 l/m 0 min 0 min 296 W/m 12,6 km/h (3 Bft) 97,87 %
19.06.2016 15:24 19,0 C 21,7 C 21,1 C 63 % 0 lf 1024,0 hPa 0,0 l/m 0 min 0 min 274 W/m 10,5 km/h (2 Bft) 100,00 %
19.06.2016 15:26 18,9 C 21,1 C 20,6 C 63 % 0 lf 1023,9 hPa 0,0 l/m 0 min 0 min 235 W/m 12,6 km/h (3 Bft) 97,87 %
19.06.2016 15:28 18,9 C 23,3 C 23,3 C 63 % 0 lf 1024,0 hPa 0,0 l/m 2 min 0 min 428 W/m 14,6 km/h (3 Bft) 97,87 %
19.06.2016 15:30 19,0 C 25,0 C 25,0 C 64 % 0 lf 1024,0 hPa 0,0 l/m 2 min 0 min 1074 W/m 8,4 km/h (2 Bft) 97,87 %
19.06.2016 15:32 18,9 C 23,9 C 23,3 C 60 % 0 lf 1024,0 hPa 0,0 l/m 2 min 0 min 750 W/m 6,3 km/h (2 Bft) 97,87 %
19.06.2016 15:34 18,9 C 24,4 C 24,4 C 61 % 0 lf 1024,0 hPa 0,0 l/m 2 min 0 min 394 W/m 16,7 km/h (3 Bft) 100,00 %
19.06.2016 15:36 19,0 C 24,4 C 24,4 C 63 % 0 lf 1024,0 hPa 0,0 l/m 2 min 0 min 393 W/m 23,0 km/h (4 Bft) 100,00 %
19.06.2016 15:38 19,0 C 24,4 C 23,3 C 62 % 0 lf 1024,0 hPa 0,0 l/m 0 min 0 min 324 W/m 8,4 km/h (2 Bft) 100,00 %
19.06.2016 15:40 19,0 C 23,9 C 22,2 C 63 % 0 lf 1024,0 hPa 0,0 l/m 0 min 0 min 270 W/m 12,6 km/h (3 Bft) 100,00 %
19.06.2016 15:42 19,0 C 23,9 C 21,7 C 61 % 0 lf 1024,0 hPa 0,0 l/m 0 min 0 min 265 W/m 12,6 km/h (3 Bft) 100,00 %
19.06.2016 15:44 19,0 C 23,9 C 22,2 C 61 % 0 lf 1024,0 hPa 0,0 l/m 0 min 0 min 269 W/m 8,4 km/h (2 Bft) 100,00 %
19.06.2016 15:46 19,0 C 26,1 C 25,0 C 62 % 0 lf 1024,1 hPa 0,0 l/m 2 min 0 min 477 W/m 10,5 km/h (2 Bft) 100,00 %
19.06.2016 15:48 19,1 C 26,1 C 26,7 C 62 % 0 lf 1024,0 hPa 0,0 l/m 2 min 0 min 990 W/m 10,5 km/h (2 Bft) 95,65 %
19.06.2016 15:50 19,1 C 25,0 C 25,0 C 64 % 0 lf 1024,0 hPa 0,0 l/m 2 min 0 min 928 W/m 8,4 km/h (2 Bft) 100,00 %
19.06.2016 15:52 19,1 C 23,3 C 22,8 C 60 % 0 lf 1024,1 hPa 0,0 l/m 0 min 0 min 238 W/m 18,8 km/h (3 Bft) 97,87 %
19.06.2016 15:54 19,1 C 22,2 C 21,1 C 61 % 0 lf 1024,0 hPa 0,0 l/m 0 min 0 min 215 W/m 10,5 km/h (2 Bft) 100,00 %
19.06.2016 15:56 19,1 C 21,1 C 20,6 C 61 % 0 lf 1024,0 hPa 0,0 l/m 0 min 0 min 201 W/m 12,6 km/h (3 Bft) 100,00 %
19.06.2016 15:58 19,0 C 22,2 C 21,7 C 61 % 0 lf 1024,0 hPa 0,0 l/m 0 min 0 min 207 W/m 16,7 km/h (3 Bft) 97,87 %
19.06.2016 16:00 19,0 C 25,0 C 25,0 C 62 % 0 lf 1024,0 hPa 0,0 l/m 2 min 0 min 775 W/m 10,5 km/h (2 Bft) 97,83 %
19.06.2016 16:02 19,1 C 26,1 C 26,7 C 61 % 0 lf 1024,0 hPa 0,0 l/m 2 min 0 min 893 W/m 10,5 km/h (2 Bft) 97,87 %
19.06.2016 16:04 19,1 C 25,6 C 26,1 C 62 % 0 lf 1023,9 hPa 0,0 l/m 2 min 0 min 896 W/m 6,3 km/h (2 Bft) 97,87 %
19.06.2016 16:06 19,1 C 23,9 C 25,0 C 61 % 0 lf 1023,9 hPa 0,0 l/m 2 min 0 min 683 W/m 8,4 km/h (2 Bft) 97,87 %
19.06.2016 16:08 19,1 C 23,9 C 24,4 C 62 % 0 lf 1023,8 hPa 0,0 l/m 0 min 0 min 262 W/m 8,4 km/h (2 Bft) 97,87 %
19.06.2016 16:10 19,2 C 24,4 C 24,4 C 61 % 0 lf 1023,8 hPa 0,0 l/m 0 min 0 min 260 W/m 8,4 km/h (2 Bft) 100,00 %
19.06.2016 16:12 19,2 C 25,6 C 26,7 C 61 % 0 lf 1023,8 hPa 0,0 l/m 2 min 0 min 802 W/m 10,5 km/h (2 Bft) 97,83 %
19.06.2016 16:14 19,2 C 26,7 C 27,2 C 61 % 0 lf 1023,8 hPa 0,0 l/m 2 min 0 min 888 W/m 12,6 km/h (3 Bft) 95,74 %
19.06.2016 16:16 19,2 C 27,2 C 27,2 C 60 % 0 lf 1023,8 hPa 0,0 l/m 2 min 0 min 910 W/m 12,6 km/h (3 Bft) 97,87 %
19.06.2016 16:18 19,3 C 27,2 C 27,8 C 58 % 0 lf 1023,8 hPa 0,0 l/m 2 min 0 min 877 W/m 10,5 km/h (2 Bft) 97,87 %
19.06.2016 16:20 19,3 C 27,8 C 28,3 C 60 % 0 lf 1023,7 hPa 0,0 l/m 2 min 0 min 864 W/m 18,8 km/h (3 Bft) 97,87 %
19.06.2016 16:22 19,4 C 27,2 C 28,3 C 60 % 0 lf 1023,7 hPa 0,0 l/m 2 min 0 min 836 W/m 12,6 km/h (3 Bft) 95,65 %
19.06.2016 16:24 19,5 C 27,8 C 28,9 C 59 % 0 lf 1023,7 hPa 0,0 l/m 2 min 0 min 833 W/m 14,6 km/h (3 Bft) 95,65 %
19.06.2016 16:26 19,6 C 27,2 C 28,9 C 60 % 0 lf 1023,8 hPa 0,0 l/m 2 min 0 min 801 W/m 14,6 km/h (3 Bft) 97,87 %
19.06.2016 16:28 19,7 C 26,1 C 28,9 C 60 % 0 lf 1023,8 hPa 0,0 l/m 2 min 0 min 773 W/m 16,7 km/h (3 Bft) 97,87 %
19.06.2016 16:30 19,8 C 26,1 C 29,4 C 59 % 0 lf 1023,7 hPa 0,0 l/m 2 min 0 min 756 W/m 8,4 km/h (2 Bft) 95,74 %
19.06.2016 16:32 19,9 C 26,1 C 30,0 C 59 % 0 lf 1023,8 hPa 0,0 l/m 2 min 0 min 786 W/m 18,8 km/h (3 Bft) 95,74 %
19.06.2016 16:34 20,0 C 26,1 C 30,0 C 59 % 0 lf 1023,7 hPa 0,0 l/m 2 min 0 min 794 W/m 10,5 km/h (2 Bft) 97,87 %
19.06.2016 16:36 20,1 C 27,2 C 30,6 C 59 % 0 lf 1023,7 hPa 0,0 l/m 2 min 0 min 806 W/m 14,6 km/h (3 Bft) 95,65 %
19.06.2016 16:38 20,2 C 27,2 C 31,1 C 60 % 0 lf 1023,8 hPa 0,0 l/m 2 min 0 min 819 W/m 6,3 km/h (2 Bft) 97,87 %
19.06.2016 16:40 20,3 C 27,2 C 30,6 C 57 % 0 lf 1023,8 hPa 0,0 l/m 2 min 0 min 807 W/m 14,6 km/h (3 Bft) 95,74 %
19.06.2016 16:42 20,3 C 25,6 C 30,6 C 56 % 0 lf 1023,7 hPa 0,0 l/m 2 min 0 min 809 W/m 6,3 km/h (2 Bft) 95,74 %
19.06.2016 16:44 20,3 C 25,0 C 27,8 C 56 % 0 lf 1023,7 hPa 0,0 l/m 2 min 0 min 814 W/m 8,4 km/h (2 Bft) 97,87 %
19.06.2016 16:46 20,4 C 26,1 C 28,3 C 57 % 0 lf 1023,6 hPa 0,0 l/m 2 min 0 min 796 W/m 10,5 km/h (2 Bft) 93,48 %
19.06.2016 16:48 20,4 C 26,7 C 28,3 C 58 % 0 lf 1023,7 hPa 0,0 l/m 2 min 0 min 758 W/m 12,6 km/h (3 Bft) 97,87 %
19.06.2016 16:50 20,4 C 26,1 C 28,3 C 57 % 0 lf 1023,6 hPa 0,0 l/m 2 min 0 min 765 W/m 14,6 km/h (3 Bft) 100,00 %
19.06.2016 16:52 20,4 C 25,0 C 27,2 C 57 % 0 lf 1023,6 hPa 0,0 l/m 2 min 0 min 634 W/m 12,6 km/h (3 Bft) 100,00 %
19.06.2016 16:54 20,4 C 23,9 C 24,4 C 58 % 0 lf 1023,6 hPa 0,0 l/m 0 min 0 min 252 W/m 12,6 km/h (3 Bft) 100,00 %
19.06.2016 16:56 20,4 C 24,4 C 25,0 C 56 % 0 lf 1023,6 hPa 0,0 l/m 0 min 0 min 190 W/m 6,3 km/h (2 Bft) 97,87 %
19.06.2016 16:58 20,3 C 25,0 C 26,7 C 57 % 0 lf 1023,5 hPa 0,0 l/m 2 min 0 min 405 W/m 14,6 km/h (3 Bft) 97,83 %
19.06.2016 17:00 20,3 C 24,4 C 24,4 C 58 % 0 lf 1023,6 hPa 0,0 l/m 2 min 0 min 528 W/m 12,6 km/h (3 Bft) 97,87 %
19.06.2016 17:02 20,3 C 23,3 C 22,8 C 57 % 0 lf 1023,5 hPa 0,0 l/m 0 min 0 min 226 W/m 6,3 km/h (2 Bft) 95,74 %
19.06.2016 17:04 20,2 C 22,8 C 21,7 C 56 % 0 lf 1023,5 hPa 0,0 l/m 0 min 0 min 220 W/m 10,5 km/h (2 Bft) 97,87 %
19.06.2016 17:06 20,2 C 23,9 C 23,3 C 56 % 0 lf 1023,5 hPa 0,0 l/m 0 min 0 min 255 W/m 6,3 km/h (2 Bft) 97,87 %
19.06.2016 17:08 20,2 C 26,1 C 23,9 C 57 % 0 lf 1023,5 hPa 0,0 l/m 2 min 0 min 820 W/m 8,4 km/h (2 Bft) 95,74 %
19.06.2016 17:10 20,2 C 26,7 C 24,4 C 56 % 0 lf 1023,5 hPa 0,0 l/m 2 min 0 min 845 W/m 8,4 km/h (2 Bft) 97,83 %
19.06.2016 17:12 20,1 C 25,0 C 23,3 C 56 % 0 lf 1023,5 hPa 0,0 l/m 2 min 0 min 558 W/m 10,5 km/h (2 Bft) 91,49 %
19.06.2016 17:14 20,1 C 25,6 C 22,8 C 56 % 0 lf 1023,5 hPa 0,0 l/m 0 min 0 min 294 W/m 8,4 km/h (2 Bft) 97,87 %
19.06.2016 17:16 20,0 C 23,9 C 21,7 C 56 % 0 lf 1023,5 hPa 0,0 l/m 0 min 0 min 294 W/m 12,6 km/h (3 Bft) 97,87 %
19.06.2016 17:18 20,0 C 23,9 C 21,7 C 58 % 0 lf 1023,6 hPa 0,0 l/m 0 min 0 min 294 W/m 10,5 km/h (2 Bft) 89,36 %
19.06.2016 17:20 19,9 C 24,4 C 22,8 C 57 % 0 lf 1023,5 hPa 0,0 l/m 0 min 0 min 294 W/m 12,6 km/h (3 Bft) 95,74 %
19.06.2016 17:22 19,9 C 23,9 C 22,8 C 56 % 0 lf 1023,5 hPa 0,0 l/m 0 min 0 min 294 W/m 12,6 km/h (3 Bft) 95,65 %
19.06.2016 17:24 19,9 C 25,0 C 24,4 C 57 % 0 lf 1023,4 hPa 0,0 l/m 2 min 0 min 540 W/m 8,4 km/h (2 Bft) 93,62 %
19.06.2016 17:26 19,9 C 23,9 C 26,1 C 58 % 0 lf 1023,4 hPa 0,0 l/m 2 min 0 min 738 W/m 14,6 km/h (3 Bft) 95,74 %
19.06.2016 17:28 19,9 C 23,9 C 26,7 C 57 % 0 lf 1023,4 hPa 0,0 l/m 2 min 0 min 729 W/m 16,7 km/h (3 Bft) 93,62 %
19.06.2016 17:30 19,9 C 23,9 C 26,7 C 58 % 0 lf 1023,4 hPa 0,0 l/m 2 min 0 min 694 W/m 10,5 km/h (2 Bft) 87,23 %
19.06.2016 17:32 20,0 C 25,0 C 25,6 C 59 % 0 lf 1023,4 hPa 0,0 l/m 2 min 0 min 692 W/m 14,6 km/h (3 Bft) 93,62 %
19.06.2016 17:34 20,0 C 23,9 C 24,4 C 58 % 0 lf 1023,4 hPa 0,0 l/m 2 min 0 min 687 W/m 10,5 km/h (2 Bft) 91,30 %
19.06.2016 17:36 20,0 C 22,8 C 23,3 C 57 % 0 lf 1023,5 hPa 0,0 l/m 2 min 0 min 664 W/m 12,6 km/h (3 Bft) 93,62 %
19.06.2016 17:38 20,1 C 22,2 C 22,2 C 57 % 0 lf 1023,4 hPa 0,0 l/m 2 min 0 min 474 W/m 8,4 km/h (2 Bft) 93,62 %
19.06.2016 17:40 20,0 C 21,1 C 21,1 C 57 % 0 lf 1023,5 hPa 0,0 l/m 0 min 0 min 202 W/m 8,4 km/h (2 Bft) 95,74 %
19.06.2016 17:42 20,0 C 21,1 C 20,6 C 58 % 0 lf 1023,3 hPa 0,0 l/m 0 min 0 min 169 W/m 12,6 km/h (3 Bft) 95,74 %
19.06.2016 17:44 20,0 C 21,7 C 20,6 C 58 % 0 lf 1023,5 hPa 0,0 l/m 2 min 0 min 514 W/m 12,6 km/h (3 Bft) 95,74 %
19.06.2016 17:46 19,9 C 22,2 C 20,6 C 59 % 0 lf 1023,4 hPa 0,0 l/m 2 min 0 min 645 W/m 8,4 km/h (2 Bft) 91,30 %
19.06.2016 17:48 19,9 C 21,1 C 20,6 C 59 % 0 lf 1023,4 hPa 0,0 l/m 2 min 0 min 400 W/m 10,5 km/h (2 Bft) 93,62 %
19.06.2016 17:50 19,9 C 21,1 C 20,0 C 58 % 0 lf 1023,5 hPa 0,0 l/m 0 min 0 min 203 W/m 8,4 km/h (2 Bft) 93,62 %
19.06.2016 17:52 19,9 C 21,1 C 20,0 C 59 % 0 lf 1023,5 hPa 0,0 l/m 0 min 0 min 191 W/m 6,3 km/h (2 Bft) 93,62 %
19.06.2016 17:54 19,9 C 21,1 C 19,4 C 59 % 0 lf 1023,5 hPa 0,0 l/m 0 min 0 min 182 W/m 10,5 km/h (2 Bft) 91,49 %
19.06.2016 17:56 19,8 C 20,6 C 19,4 C 59 % 0 lf 1023,5 hPa 0,0 l/m 0 min 0 min 176 W/m 6,3 km/h (2 Bft) 95,74 %
19.06.2016 17:58 19,8 C 20,6 C 18,9 C 58 % 0 lf 1023,4 hPa 0,0 l/m 0 min 0 min 173 W/m 4,2 km/h (1 Bft) 95,65 %
19.06.2016 18:00 19,7 C 20,0 C 18,9 C 59 % 0 lf 1023,3 hPa 0,0 l/m 0 min 0 min 173 W/m 6,3 km/h (2 Bft) 95,74 %
19.06.2016 18:02 19,7 C 20,6 C 18,9 C 59 % 0 lf 1023,3 hPa 0,0 l/m 0 min 0 min 184 W/m 6,3 km/h (2 Bft) 95,74 %
19.06.2016 18:04 19,7 C 20,6 C 18,9 C 60 % 0 lf 1023,3 hPa 0,0 l/m 0 min 0 min 202 W/m 8,4 km/h (2 Bft) 91,49 %
19.06.2016 18:06 19,6 C 20,6 C 18,9 C 57 % 0 lf 1023,3 hPa 0,0 l/m 0 min 0 min 243 W/m 4,2 km/h (1 Bft) 95,74 %
19.06.2016 18:08 19,6 C 20,6 C 19,4 C 58 % 0 lf 1023,3 hPa 0,0 l/m 2 min 0 min 386 W/m 8,4 km/h (2 Bft) 97,83 %
19.06.2016 18:10 19,6 C 21,1 C 19,4 C 57 % 0 lf 1023,3 hPa 0,0 l/m 2 min 0 min 598 W/m 10,5 km/h (2 Bft) 93,62 %
19.06.2016 18:12 19,5 C 21,1 C 19,4 C 58 % 0 lf 1023,2 hPa 0,0 l/m 2 min 0 min 527 W/m 4,2 km/h (1 Bft) 97,87 %
19.06.2016 18:14 19,5 C 21,7 C 19,4 C 58 % 0 lf 1023,3 hPa 0,0 l/m 2 min 0 min 610 W/m 6,3 km/h (2 Bft) 93,62 %
19.06.2016 18:16 19,5 C 21,7 C 19,4 C 58 % 0 lf 1023,3 hPa 0,0 l/m 2 min 0 min 572 W/m 14,6 km/h (3 Bft) 93,62 %
19.06.2016 18:18 19,5 C 21,7 C 19,4 C 59 % 0 lf 1023,2 hPa 0,0 l/m 2 min 0 min 546 W/m 20,9 km/h (4 Bft) 97,87 %
19.06.2016 18:20 19,5 C 21,1 C 18,9 C 58 % 0 lf 1023,2 hPa 0,0 l/m 2 min 0 min 567 W/m 18,8 km/h (3 Bft) 95,65 %
19.06.2016 18:22 19,5 C 21,1 C 18,9 C 58 % 0 lf 1023,2 hPa 0,0 l/m 2 min 0 min 533 W/m 18,8 km/h (3 Bft) 93,62 %
19.06.2016 18:24 19,4 C 20,6 C 18,3 C 57 % 0 lf 1023,2 hPa 0,0 l/m 2 min 0 min 302 W/m 14,6 km/h (3 Bft) 93,62 %
19.06.2016 18:26 19,4 C 20,6 C 18,3 C 58 % 0 lf 1023,2 hPa 0,0 l/m 2 min 0 min 450 W/m 12,6 km/h (3 Bft) 93,62 %
19.06.2016 18:28 19,4 C 20,6 C 17,8 C 59 % 0 lf 1023,1 hPa 0,0 l/m 2 min 0 min 498 W/m 14,6 km/h (3 Bft) 97,87 %
19.06.2016 18:30 19,4 C 20,0 C 17,8 C 59 % 0 lf 1023,2 hPa 0,0 l/m 2 min 0 min 362 W/m 12,6 km/h (3 Bft) 95,74 %
19.06.2016 18:32 19,3 C 20,0 C 17,8 C 60 % 0 lf 1023,3 hPa 0,0 l/m 0 min 0 min 99 W/m 12,6 km/h (3 Bft) 97,83 %
19.06.2016 18:34 19,3 C 19,4 C 17,2 C 59 % 0 lf 1023,2 hPa 0,0 l/m 0 min 0 min 93 W/m 14,6 km/h (3 Bft) 95,74 %
19.06.2016 18:36 19,2 C 19,4 C 16,7 C 59 % 0 lf 1023,2 hPa 0,0 l/m 0 min 0 min 87 W/m 16,7 km/h (3 Bft) 97,87 %
19.06.2016 18:38 19,2 C 18,9 C 16,7 C 60 % 0 lf 1023,2 hPa 0,0 l/m 0 min 0 min 92 W/m 16,7 km/h (3 Bft) 95,74 %
19.06.2016 18:40 19,1 C 18,9 C 16,7 C 60 % 0 lf 1023,2 hPa 0,0 l/m 0 min 0 min 109 W/m 8,4 km/h (2 Bft) 95,74 %
19.06.2016 18:42 19,1 C 18,9 C 16,7 C 60 % 0 lf 1023,2 hPa 0,0 l/m 2 min 0 min 335 W/m 8,4 km/h (2 Bft) 97,87 %
19.06.2016 18:44 19,0 C 19,4 C 17,2 C 60 % 0 lf 1023,3 hPa 0,0 l/m 2 min 0 min 443 W/m 14,6 km/h (3 Bft) 97,83 %
19.06.2016 18:46 18,9 C 19,4 C 17,2 C 60 % 0 lf 1023,3 hPa 0,0 l/m 2 min 0 min 454 W/m 10,5 km/h (2 Bft) 95,74 %
19.06.2016 18:48 18,9 C 19,4 C 17,8 C 60 % 0 lf 1023,2 hPa 0,0 l/m 2 min 0 min 456 W/m 10,5 km/h (2 Bft) 95,74 %
19.06.2016 18:50 18,8 C 20,0 C 17,8 C 60 % 0 lf 1023,2 hPa 0,0 l/m 2 min 0 min 454 W/m 12,6 km/h (3 Bft) 97,87 %
19.06.2016 18:52 18,8 C 19,4 C 17,2 C 60 % 0 lf 1023,2 hPa 0,0 l/m 2 min 0 min 415 W/m 10,5 km/h (2 Bft) 97,83 %
19.06.2016 18:54 18,8 C 20,0 C 17,2 C 61 % 0 lf 1023,2 hPa 0,0 l/m 2 min 0 min 407 W/m 16,7 km/h (3 Bft) 95,74 %
19.06.2016 18:56 18,7 C 19,4 C 17,2 C 60 % 0 lf 1023,2 hPa 0,0 l/m 2 min 0 min 369 W/m 16,7 km/h (3 Bft) 95,65 %
19.06.2016 18:58 18,7 C 19,4 C 17,2 C 60 % 0 lf 1023,2 hPa 0,0 l/m 2 min 0 min 370 W/m 16,7 km/h (3 Bft) 93,62 %
19.06.2016 19:00 18,7 C 19,4 C 17,2 C 60 % 0 lf 1023,1 hPa 0,0 l/m 2 min 0 min 375 W/m 16,7 km/h (3 Bft) 93,62 %
19.06.2016 19:02 18,7 C 19,4 C 17,2 C 61 % 0 lf 1023,2 hPa 0,0 l/m 2 min 0 min 366 W/m 14,6 km/h (3 Bft) 100,00 %
19.06.2016 19:04 18,6 C 19,4 C 17,2 C 61 % 0 lf 1023,2 hPa 0,0 l/m 2 min 0 min 363 W/m 16,7 km/h (3 Bft) 100,00 %
19.06.2016 19:08 18,6 C 19,4 C 17,2 C 61 % 0 lf 1023,2 hPa 0,0 l/m 2 min 0 min 359 W/m 14,6 km/h (3 Bft) 98,92 %
19.06.2016 19:10 18,6 C 19,4 C 17,2 C 61 % 0 lf 1023,1 hPa 0,0 l/m 2 min 0 min 360 W/m 14,6 km/h (3 Bft) 100,00 %
19.06.2016 19:12 18,6 C 18,9 C 17,2 C 61 % 0 lf 1023,2 hPa 0,0 l/m 2 min 0 min 321 W/m 12,6 km/h (3 Bft) 95,74 %
19.06.2016 19:14 18,6 C 18,9 C 16,7 C 60 % 0 lf 1023,1 hPa 0,0 l/m 0 min 0 min 173 W/m 14,6 km/h (3 Bft) 97,87 %
19.06.2016 19:16 18,5 C 18,9 C 16,7 C 61 % 0 lf 1023,2 hPa 0,0 l/m 0 min 0 min 166 W/m 10,5 km/h (2 Bft) 97,87 %
19.06.2016 19:18 18,5 C 18,9 C 16,7 C 61 % 0 lf 1023,1 hPa 0,0 l/m 2 min 0 min 193 W/m 8,4 km/h (2 Bft) 100,00 %
19.06.2016 19:20 18,5 C 18,3 C 16,7 C 62 % 0 lf 1023,2 hPa 0,0 l/m 2 min 0 min 200 W/m 10,5 km/h (2 Bft) 100,00 %
19.06.2016 19:22 18,5 C 18,3 C 16,7 C 61 % 0 lf 1023,2 hPa 0,0 l/m 2 min 0 min 239 W/m 12,6 km/h (3 Bft) 97,96 %
19.06.2016 19:24 18,4 C 18,3 C 16,7 C 60 % 0 lf 1023,1 hPa 0,0 l/m 2 min 0 min 211 W/m 12,6 km/h (3 Bft) 100,00 %
19.06.2016 19:26 18,4 C 18,3 C 16,7 C 61 % 0 lf 1023,2 hPa 0,0 l/m 2 min 0 min 185 W/m 8,4 km/h (2 Bft) 95,74 %
19.06.2016 19:28 18,4 C 18,3 C 16,7 C 61 % 0 lf 1023,1 hPa 0,0 l/m 0 min 0 min 138 W/m 14,6 km/h (3 Bft) 95,74 %
19.06.2016 19:30 18,4 C 18,3 C 16,7 C 61 % 0 lf 1023,2 hPa 0,0 l/m 0 min 0 min 128 W/m 12,6 km/h (3 Bft) 95,74 %
19.06.2016 19:32 18,4 C 18,3 C 16,7 C 61 % 0 lf 1023,2 hPa 0,0 l/m 2 min 0 min 205 W/m 10,5 km/h (2 Bft) 97,83 %
19.06.2016 19:34 18,3 C 18,3 C 16,1 C 60 % 0 lf 1023,2 hPa 0,0 l/m 2 min 0 min 268 W/m 8,4 km/h (2 Bft) 97,87 %
19.06.2016 19:36 18,3 C 18,3 C 16,1 C 60 % 0 lf 1023,2 hPa 0,0 l/m 2 min 0 min 276 W/m 10,5 km/h (2 Bft) 97,87 %
19.06.2016 19:38 18,3 C 18,3 C 16,1 C 61 % 0 lf 1023,1 hPa 0,0 l/m 2 min 0 min 218 W/m 10,5 km/h (2 Bft) 95,74 %
19.06.2016 19:40 18,2 C 18,3 C 16,1 C 61 % 0 lf 1023,1 hPa 0,0 l/m 2 min 0 min 188 W/m 10,5 km/h (2 Bft) 97,87 %
19.06.2016 19:42 18,2 C 18,3 C 16,1 C 61 % 0 lf 1023,1 hPa 0,0 l/m 0 min 0 min 132 W/m 12,6 km/h (3 Bft) 95,65 %
19.06.2016 19:44 18,2 C 18,3 C 16,1 C 62 % 0 lf 1023,1 hPa 0,0 l/m 0 min 0 min 108 W/m 10,5 km/h (2 Bft) 95,74 %
19.06.2016 19:46 18,2 C 17,8 C 16,1 C 62 % 0 lf 1023,2 hPa 0,0 l/m 0 min 0 min 91 W/m 6,3 km/h (2 Bft) 97,87 %
19.06.2016 19:48 18,2 C 17,8 C 16,1 C 62 % 0 lf 1023,1 hPa 0,0 l/m 0 min 0 min 85 W/m 8,4 km/h (2 Bft) 95,74 %
19.06.2016 19:50 18,1 C 17,8 C 15,6 C 62 % 0 lf 1023,2 hPa 0,0 l/m 0 min 0 min 82 W/m 8,4 km/h (2 Bft) 97,87 %
19.06.2016 19:52 18,1 C 17,8 C 15,6 C 62 % 0 lf 1023,1 hPa 0,0 l/m 0 min 0 min 79 W/m 8,4 km/h (2 Bft) 97,14 %
19.06.2016 19:54 18,1 C 17,8 C 15,6 C 62 % 0 lf 1023,2 hPa 0,0 l/m 0 min 0 min 79 W/m 8,4 km/h (2 Bft) 95,74 %
19.06.2016 19:56 18,1 C 17,2 C 15,6 C 63 % 0 lf 1023,2 hPa 0,0 l/m 0 min 0 min 79 W/m 8,4 km/h (2 Bft) 95,74 %
19.06.2016 19:58 18,1 C 17,2 C 15,6 C 62 % 0 lf 1023,2 hPa 0,0 l/m 0 min 0 min 79 W/m 4,2 km/h (1 Bft) 97,83 %
19.06.2016 20:00 18,0 C 17,2 C 15,6 C 62 % 0 lf 1023,2 hPa 0,0 l/m 0 min 0 min 77 W/m 6,3 km/h (2 Bft) 97,87 %
19.06.2016 20:02 18,0 C 17,2 C 15,6 C 62 % 0 lf 1023,1 hPa 0,0 l/m 0 min 0 min 76 W/m 6,3 km/h (2 Bft) 97,87 %
19.06.2016 20:04 17,9 C 17,2 C 15,6 C 63 % 0 lf 1023,1 hPa 0,0 l/m 0 min 0 min 75 W/m 4,2 km/h (1 Bft) 91,49 %
19.06.2016 20:06 17,9 C 17,2 C 15,6 C 64 % 0 lf 1023,1 hPa 0,0 l/m 0 min 0 min 72 W/m 6,3 km/h (2 Bft) 95,74 %
19.06.2016 20:08 17,9 C 17,2 C 15,6 C 64 % 0 lf 1023,1 hPa 0,0 l/m 0 min 0 min 70 W/m 6,3 km/h (2 Bft) 97,87 %
19.06.2016 20:10 17,9 C 17,2 C 15,6 C 64 % 0 lf 1023,1 hPa 0,0 l/m 0 min 0 min 73 W/m 4,2 km/h (1 Bft) 91,30 %
19.06.2016 20:12 17,8 C 16,7 C 15,0 C 64 % 0 lf 1023,2 hPa 0,0 l/m 0 min 0 min 76 W/m 4,2 km/h (1 Bft) 100,00 %
19.06.2016 20:14 17,8 C 16,7 C 15,0 C 65 % 0 lf 1023,2 hPa 0,0 l/m 0 min 0 min 76 W/m 2,1 km/h (1 Bft) 100,00 %
19.06.2016 20:16 17,8 C 16,7 C 15,0 C 65 % 0 lf 1023,1 hPa 0,0 l/m 0 min 0 min 76 W/m 2,1 km/h (1 Bft) 97,87 %
19.06.2016 20:18 17,8 C 16,7 C 15,0 C 66 % 0 lf 1023,1 hPa 0,0 l/m 0 min 0 min 94 W/m 2,1 km/h (1 Bft) 95,74 %
19.06.2016 20:20 17,7 C 16,7 C 15,0 C 67 % 0 lf 1023,2 hPa 0,0 l/m 2 min 0 min 112 W/m 4,2 km/h (1 Bft) 97,87 %
19.06.2016 20:22 17,7 C 16,7 C 15,0 C 67 % 0 lf 1023,2 hPa 0,0 l/m 0 min 0 min 80 W/m 2,1 km/h (1 Bft) 96,30 %
19.06.2016 20:24 17,7 C 16,7 C 15,0 C 67 % 0 lf 1023,2 hPa 0,0 l/m 0 min 0 min 86 W/m 2,1 km/h (1 Bft) 97,87 %
19.06.2016 20:26 17,7 C 16,7 C 15,0 C 67 % 0 lf 1023,2 hPa 0,0 l/m 2 min 0 min 115 W/m 2,1 km/h (1 Bft) 91,49 %
19.06.2016 20:28 17,6 C 16,7 C 15,0 C 67 % 0 lf 1023,2 hPa 0,0 l/m 2 min 0 min 109 W/m 2,1 km/h (1 Bft) 97,87 %
19.06.2016 20:30 17,6 C 16,7 C 15,6 C 67 % 0 lf 1023,2 hPa 0,0 l/m 2 min 0 min 109 W/m 4,2 km/h (1 Bft) 100,00 %
19.06.2016 20:32 17,6 C 17,2 C 15,6 C 67 % 0 lf 1023,1 hPa 0,0 l/m 2 min 0 min 149 W/m 2,1 km/h (1 Bft) 95,74 %
19.06.2016 20:34 17,6 C 17,2 C 15,6 C 68 % 0 lf 1023,2 hPa 0,0 l/m 2 min 0 min 150 W/m 2,1 km/h (1 Bft) 97,87 %
19.06.2016 20:36 17,6 C 17,2 C 16,1 C 68 % 0 lf 1023,2 hPa 0,0 l/m 2 min 0 min 150 W/m 2,1 km/h (1 Bft) 95,74 %
19.06.2016 20:38 17,5 C 17,2 C 16,1 C 69 % 0 lf 1023,2 hPa 0,0 l/m 2 min 0 min 147 W/m 2,1 km/h (1 Bft) 89,36 %
19.06.2016 20:40 17,5 C 17,2 C 16,1 C 68 % 0 lf 1023,2 hPa 0,0 l/m 2 min 0 min 142 W/m 4,2 km/h (1 Bft) 95,74 %
19.06.2016 20:42 17,5 C 17,8 C 16,1 C 68 % 0 lf 1023,3 hPa 0,0 l/m 2 min 0 min 137 W/m 4,2 km/h (1 Bft) 93,48 %
19.06.2016 20:44 17,4 C 17,8 C 16,1 C 68 % 0 lf 1023,2 hPa 0,0 l/m 2 min 0 min 129 W/m 4,2 km/h (1 Bft) 91,49 %
19.06.2016 20:46 17,4 C 17,8 C 16,1 C 68 % 0 lf 1023,2 hPa 0,0 l/m 2 min 0 min 120 W/m 4,2 km/h (1 Bft) 93,62 %
19.06.2016 20:48 17,4 C 17,8 C 16,1 C 69 % 0 lf 1023,3 hPa 0,0 l/m 2 min 0 min 95 W/m 4,2 km/h (1 Bft) 91,49 %
19.06.2016 20:50 17,4 C 17,8 C 16,1 C 69 % 0 lf 1023,2 hPa 0,0 l/m 2 min 0 min 85 W/m 4,2 km/h (1 Bft) 89,36 %
19.06.2016 20:52 17,4 C 17,8 C 16,1 C 69 % 0 lf 1023,2 hPa 0,0 l/m 2 min 0 min 76 W/m 4,2 km/h (1 Bft) 89,80 %
19.06.2016 20:54 17,4 C 17,8 C 16,1 C 69 % 0 lf 1023,2 hPa 0,0 l/m 2 min 0 min 72 W/m 4,2 km/h (1 Bft) 93,62 %
19.06.2016 20:56 17,4 C 17,2 C 15,6 C 69 % 0 lf 1023,3 hPa 0,0 l/m 2 min 0 min 69 W/m 2,1 km/h (1 Bft) 91,49 %
19.06.2016 20:58 17,4 C 17,2 C 15,6 C 70 % 0 lf 1023,3 hPa 0,0 l/m 2 min 0 min 62 W/m 4,2 km/h (1 Bft) 95,74 %
19.06.2016 21:00 17,4 C 17,2 C 15,0 C 70 % 0 lf 1023,3 hPa 0,0 l/m 2 min 0 min 54 W/m 2,1 km/h (1 Bft) 91,49 %
19.06.2016 21:02 17,4 C 17,2 C 15,0 C 70 % 0 lf 1023,3 hPa 0,0 l/m 2 min 0 min 49 W/m 0,0 km/h (0 Bft) 93,62 %
19.06.2016 21:04 17,4 C 16,7 C 15,0 C 70 % 0 lf 1023,3 hPa 0,0 l/m 0 min 0 min 45 W/m 2,1 km/h (1 Bft) 93,48 %
19.06.2016 21:06 17,4 C 16,7 C 14,4 C 70 % 0 lf 1023,3 hPa 0,0 l/m 0 min 0 min 41 W/m 4,2 km/h (1 Bft) 91,49 %
19.06.2016 21:08 17,4 C 16,7 C 14,4 C 70 % 0 lf 1023,2 hPa 0,0 l/m 0 min 0 min 36 W/m 2,1 km/h (1 Bft) 93,62 %
19.06.2016 21:10 17,4 C 16,7 C 14,4 C 70 % 0 lf 1023,2 hPa 0,0 l/m 0 min 0 min 32 W/m 2,1 km/h (1 Bft) 93,62 %
19.06.2016 21:12 17,3 C 16,7 C 13,9 C 70 % 0 lf 1023,2 hPa 0,0 l/m 0 min 0 min 30 W/m 0,0 km/h (0 Bft) 95,74 %
19.06.2016 21:14 17,3 C 16,1 C 13,9 C 70 % 0 lf 1023,1 hPa 0,0 l/m 0 min 0 min 28 W/m 0,0 km/h (0 Bft) 95,74 %
19.06.2016 21:16 17,3 C 16,1 C 13,9 C 71 % 0 lf 1023,1 hPa 0,0 l/m 0 min 0 min 26 W/m 0,0 km/h (0 Bft) 95,65 %
19.06.2016 21:18 17,3 C 16,1 C 13,9 C 71 % 0 lf 1023,1 hPa 0,0 l/m 0 min 0 min 25 W/m 0,0 km/h (0 Bft) 91,49 %
19.06.2016 21:20 17,3 C 16,1 C 13,3 C 71 % 0 lf 1023,1 hPa 0,0 l/m 0 min 0 min 23 W/m 0,0 km/h (0 Bft) 93,62 %
19.06.2016 21:22 17,3 C 15,6 C 13,3 C 71 % 0 lf 1023,1 hPa 0,0 l/m 0 min 0 min 23 W/m 0,0 km/h (0 Bft) 93,75 %
19.06.2016 21:24 17,2 C 15,6 C 13,3 C 72 % 0 lf 1023,1 hPa 0,0 l/m 0 min 0 min 23 W/m 0,0 km/h (0 Bft) 95,74 %
19.06.2016 21:26 17,2 C 15,6 C 13,3 C 72 % 0 lf 1023,2 hPa 0,0 l/m 0 min 0 min 21 W/m 0,0 km/h (0 Bft) 95,74 %
19.06.2016 21:28 17,2 C 15,6 C 13,3 C 72 % 0 lf 1023,2 hPa 0,0 l/m 0 min 0 min 19 W/m 0,0 km/h (0 Bft) 91,30 %
19.06.2016 21:30 17,1 C 15,6 C 12,8 C 72 % 0 lf 1023,2 hPa 0,0 l/m 0 min 0 min 18 W/m 2,1 km/h (1 Bft) 95,74 %
19.06.2016 21:32 17,1 C 15,0 C 12,8 C 72 % 0 lf 1023,2 hPa 0,0 l/m 0 min 0 min 16 W/m 0,0 km/h (0 Bft) 97,87 %
19.06.2016 21:34 17,0 C 15,0 C 12,8 C 72 % 0 lf 1023,2 hPa 0,0 l/m 0 min 0 min 15 W/m 2,1 km/h (1 Bft) 95,74 %
19.06.2016 21:36 17,0 C 15,0 C 12,8 C 72 % 0 lf 1023,2 hPa 0,0 l/m 0 min 0 min 14 W/m 4,2 km/h (1 Bft) 97,87 %
19.06.2016 21:38 16,9 C 14,4 C 12,8 C 73 % 0 lf 1023,2 hPa 0,0 l/m 0 min 0 min 14 W/m 0,0 km/h (0 Bft) 97,87 %
19.06.2016 21:40 16,8 C 14,4 C 12,2 C 73 % 0 lf 1023,2 hPa 0,0 l/m 0 min 0 min 12 W/m 0,0 km/h (0 Bft) 100,00 %
19.06.2016 21:42 16,8 C 14,4 C 12,2 C 73 % 0 lf 1023,2 hPa 0,0 l/m 0 min 0 min 12 W/m 0,0 km/h (0 Bft) 97,87 %
19.06.2016 21:44 16,7 C 14,4 C 12,2 C 74 % 0 lf 1023,2 hPa 0,0 l/m 0 min 0 min 12 W/m 0,0 km/h (0 Bft) 100,00 %
19.06.2016 21:46 16,7 C 13,9 C 12,2 C 74 % 0 lf 1023,3 hPa 0,0 l/m 0 min 0 min 11 W/m 0,0 km/h (0 Bft) 100,00 %
19.06.2016 21:48 16,6 C 13,9 C 12,2 C 74 % 0 lf 1023,3 hPa 0,0 l/m 0 min 0 min 11 W/m 0,0 km/h (0 Bft) 95,74 %
19.06.2016 21:50 16,5 C 13,9 C 12,2 C 75 % 0 lf 1023,2 hPa 0,0 l/m 0 min 0 min 11 W/m 0,0 km/h (0 Bft) 100,00 %
19.06.2016 21:52 16,4 C 13,9 C 11,7 C 75 % 0 lf 1023,2 hPa 0,0 l/m 0 min 0 min 10 W/m 0,0 km/h (0 Bft) 97,14 %
19.06.2016 21:54 16,4 C 13,9 C 11,7 C 75 % 0 lf 1023,3 hPa 0,0 l/m 0 min 0 min 9 W/m 0,0 km/h (0 Bft) 100,00 %
19.06.2016 21:56 16,3 C 13,9 C 11,7 C 75 % 0 lf 1023,2 hPa 0,0 l/m 0 min 0 min 9 W/m 0,0 km/h (0 Bft) 95,65 %
19.06.2016 21:58 16,2 C 13,9 C 11,7 C 76 % 0 lf 1023,3 hPa 0,0 l/m 0 min 0 min 9 W/m 0,0 km/h (0 Bft) 95,74 %
19.06.2016 22:00 16,2 C 13,9 C 11,7 C 76 % 0 lf 1023,3 hPa 0,0 l/m 0 min 0 min 7 W/m 0,0 km/h (0 Bft) 97,87 %
19.06.2016 22:02 16,1 C 13,9 C 11,7 C 77 % 0 lf 1023,3 hPa 0,0 l/m 0 min 0 min 7 W/m 0,0 km/h (0 Bft) 95,74 %
19.06.2016 22:04 16,0 C 13,9 C 11,7 C 77 % 0 lf 1023,3 hPa 0,0 l/m 0 min 0 min 7 W/m 0,0 km/h (0 Bft) 97,87 %
19.06.2016 22:06 15,9 C 13,9 C 11,7 C 77 % 0 lf 1023,3 hPa 0,0 l/m 0 min 0 min 7 W/m 0,0 km/h (0 Bft) 97,83 %
19.06.2016 22:08 15,9 C 13,3 C 11,7 C 78 % 0 lf 1023,4 hPa 0,0 l/m 0 min 0 min 6 W/m 0,0 km/h (0 Bft) 100,00 %
19.06.2016 22:10 15,8 C 13,3 C 11,7 C 78 % 0 lf 1023,4 hPa 0,0 l/m 0 min 0 min 5 W/m 0,0 km/h (0 Bft) 100,00 %
19.06.2016 22:12 15,7 C 13,3 C 11,1 C 78 % 0 lf 1023,5 hPa 0,0 l/m 0 min 0 min 5 W/m 0,0 km/h (0 Bft) 97,87 %
19.06.2016 22:14 15,7 C 13,3 C 11,1 C 78 % 0 lf 1023,4 hPa 0,0 l/m 0 min 0 min 5 W/m 0,0 km/h (0 Bft) 89,36 %
19.06.2016 22:16 15,6 C 13,3 C 11,1 C 79 % 0 lf 1023,4 hPa 0,0 l/m 0 min 0 min 5 W/m 2,1 km/h (1 Bft) 97,87 %
19.06.2016 22:18 15,5 C 12,8 C 11,1 C 79 % 0 lf 1023,4 hPa 0,0 l/m 0 min 0 min 5 W/m 0,0 km/h (0 Bft) 97,83 %
19.06.2016 22:20 15,4 C 12,8 C 11,1 C 79 % 0 lf 1023,4 hPa 0,0 l/m 0 min 0 min 5 W/m 0,0 km/h (0 Bft) 95,74 %
19.06.2016 22:22 15,4 C 12,8 C 11,1 C 80 % 0 lf 1023,4 hPa 0,0 l/m 0 min 0 min 5 W/m 0,0 km/h (0 Bft) 94,55 %
19.06.2016 22:24 15,3 C 12,8 C 11,1 C 80 % 0 lf 1023,4 hPa 0,0 l/m 0 min 0 min 5 W/m 0,0 km/h (0 Bft) 93,62 %
19.06.2016 22:26 15,2 C 12,8 C 11,1 C 80 % 0 lf 1023,5 hPa 0,0 l/m 0 min 0 min 5 W/m 0,0 km/h (0 Bft) 93,62 %
19.06.2016 22:28 15,2 C 12,8 C 11,1 C 81 % 0 lf 1023,5 hPa 0,0 l/m 0 min 0 min 5 W/m 0,0 km/h (0 Bft) 95,65 %
19.06.2016 22:30 15,1 C 12,8 C 11,1 C 81 % 0 lf 1023,5 hPa 0,0 l/m 0 min 0 min 5 W/m 0,0 km/h (0 Bft) 93,62 %
19.06.2016 22:32 15,1 C 12,8 C 11,1 C 81 % 0 lf 1023,5 hPa 0,0 l/m 0 min 0 min 5 W/m 0,0 km/h (0 Bft) 93,62 %
19.06.2016 22:34 14,9 C 12,8 C 11,1 C 81 % 0 lf 1023,5 hPa 0,0 l/m 0 min 0 min 5 W/m 0,0 km/h (0 Bft) 95,74 %
19.06.2016 22:36 14,9 C 12,2 C 11,1 C 81 % 0 lf 1023,6 hPa 0,0 l/m 0 min 0 min 5 W/m 0,0 km/h (0 Bft) 93,62 %
19.06.2016 22:38 14,8 C 12,2 C 11,1 C 82 % 0 lf 1023,6 hPa 0,0 l/m 0 min 0 min 5 W/m 2,1 km/h (1 Bft) 91,49 %
19.06.2016 22:40 14,7 C 12,2 C 10,6 C 82 % 0 lf 1023,6 hPa 0,0 l/m 0 min 0 min 5 W/m 2,1 km/h (1 Bft) 95,65 %
19.06.2016 22:42 14,7 C 12,2 C 10,6 C 82 % 0 lf 1023,6 hPa 0,0 l/m 0 min 0 min 5 W/m 2,1 km/h (1 Bft) 93,62 %
19.06.2016 22:44 14,6 C 12,8 C 10,6 C 82 % 0 lf 1023,5 hPa 0,0 l/m 0 min 0 min 5 W/m 4,2 km/h (1 Bft) 91,49 %
19.06.2016 22:46 14,6 C 12,2 C 10,6 C 83 % 0 lf 1023,5 hPa 0,0 l/m 0 min 0 min 5 W/m 4,2 km/h (1 Bft) 91,49 %
19.06.2016 22:48 14,4 C 12,2 C 10,6 C 83 % 0 lf 1023,5 hPa 0,0 l/m 0 min 0 min 5 W/m 2,1 km/h (1 Bft) 93,62 %
19.06.2016 22:50 14,4 C 12,2 C 10,6 C 83 % 0 lf 1023,5 hPa 0,0 l/m 0 min 0 min 5 W/m 0,0 km/h (0 Bft) 95,65 %
19.06.2016 22:52 14,3 C 12,2 C 10,6 C 83 % 0 lf 1023,5 hPa 0,0 l/m 0 min 0 min 5 W/m 0,0 km/h (0 Bft) 95,74 %
19.06.2016 22:54 14,2 C 12,2 C 10,6 C 83 % 0 lf 1023,5 hPa 0,0 l/m 0 min 0 min 5 W/m 0,0 km/h (0 Bft) 93,62 %
19.06.2016 22:56 14,2 C 12,2 C 10,6 C 83 % 0 lf 1023,4 hPa 0,0 l/m 0 min 0 min 5 W/m 0,0 km/h (0 Bft) 97,87 %
19.06.2016 22:58 14,2 C 12,2 C 10,6 C 83 % 0 lf 1023,4 hPa 0,0 l/m 0 min 0 min 5 W/m 0,0 km/h (0 Bft) 97,87 %
19.06.2016 23:00 14,2 C 12,2 C 10,6 C 84 % 0 lf 1023,4 hPa 0,0 l/m 0 min 0 min 5 W/m 0,0 km/h (0 Bft) 95,74 %
19.06.2016 23:02 14,1 C 12,2 C 10,6 C 84 % 0 lf 1023,4 hPa 0,0 l/m 0 min 0 min 5 W/m 0,0 km/h (0 Bft) 95,65 %
19.06.2016 23:04 14,1 C 12,2 C 10,6 C 84 % 0 lf 1023,4 hPa 0,0 l/m 0 min 0 min 5 W/m 0,0 km/h (0 Bft) 95,74 %
19.06.2016 23:06 13,9 C 12,2 C 10,6 C 84 % 0 lf 1023,4 hPa 0,0 l/m 0 min 0 min 5 W/m 0,0 km/h (0 Bft) 97,87 %
19.06.2016 23:08 13,9 C 11,7 C 10,6 C 84 % 1 lf 1023,4 hPa 0,0 l/m 0 min 0 min 5 W/m 0,0 km/h (0 Bft) 95,74 %
19.06.2016 23:10 13,8 C 11,7 C 10,6 C 84 % 0 lf 1023,4 hPa 0,0 l/m 0 min 0 min 5 W/m 0,0 km/h (0 Bft) 95,74 %
19.06.2016 23:12 13,8 C 11,7 C 10,6 C 84 % 1 lf 1023,3 hPa 0,0 l/m 0 min 0 min 5 W/m 0,0 km/h (0 Bft) 97,87 %
19.06.2016 23:14 13,7 C 11,7 C 10,6 C 84 % 1 lf 1023,3 hPa 0,0 l/m 0 min 0 min 5 W/m 0,0 km/h (0 Bft) 100,00 %
19.06.2016 23:16 13,7 C 11,7 C 10,6 C 84 % 1 lf 1023,3 hPa 0,0 l/m 0 min 0 min 5 W/m 0,0 km/h (0 Bft) 95,74 %
19.06.2016 23:18 13,6 C 11,7 C 10,0 C 84 % 1 lf 1023,3 hPa 0,0 l/m 0 min 0 min 5 W/m 0,0 km/h (0 Bft) 95,74 %
19.06.2016 23:20 13,6 C 11,7 C 10,0 C 85 % 1 lf 1023,2 hPa 0,0 l/m 0 min 0 min 5 W/m 0,0 km/h (0 Bft) 97,87 %
19.06.2016 23:22 13,5 C 11,7 C 10,0 C 85 % 1 lf 1023,2 hPa 0,0 l/m 0 min 0 min 5 W/m 4,2 km/h (1 Bft) 100,00 %
19.06.2016 23:24 13,4 C 11,7 C 10,0 C 85 % 1 lf 1023,3 hPa 0,0 l/m 0 min 0 min 5 W/m 2,1 km/h (1 Bft) 97,83 %
19.06.2016 23:26 13,4 C 11,7 C 10,0 C 85 % 1 lf 1023,2 hPa 0,0 l/m 0 min 0 min 5 W/m 0,0 km/h (0 Bft) 95,74 %
19.06.2016 23:28 13,3 C 11,7 C 10,0 C 85 % 1 lf 1023,2 hPa 0,0 l/m 0 min 0 min 5 W/m 2,1 km/h (1 Bft) 95,74 %
19.06.2016 23:30 13,3 C 11,7 C 10,0 C 85 % 1 lf 1023,2 hPa 0,0 l/m 0 min 0 min 5 W/m 4,2 km/h (1 Bft) 97,87 %
19.06.2016 23:32 13,2 C 11,7 C 10,0 C 85 % 1 lf 1023,2 hPa 0,0 l/m 0 min 0 min 5 W/m 4,2 km/h (1 Bft) 95,74 %
19.06.2016 23:34 13,2 C 11,7 C 10,0 C 85 % 1 lf 1023,2 hPa 0,0 l/m 0 min 0 min 5 W/m 2,1 km/h (1 Bft) 97,87 %
19.06.2016 23:36 13,1 C 11,1 C 10,0 C 86 % 1 lf 1023,2 hPa 0,0 l/m 0 min 0 min 5 W/m 2,1 km/h (1 Bft) 97,83 %
19.06.2016 23:38 13,1 C 11,1 C 10,0 C 86 % 1 lf 1023,2 hPa 0,0 l/m 0 min 0 min 5 W/m 2,1 km/h (1 Bft) 95,74 %
19.06.2016 23:40 13,1 C 11,7 C 10,0 C 86 % 1 lf 1023,2 hPa 0,0 l/m 0 min 0 min 5 W/m 2,1 km/h (1 Bft) 97,87 %
19.06.2016 23:42 13,0 C 11,7 C 10,0 C 86 % 1 lf 1023,2 hPa 0,0 l/m 0 min 0 min 5 W/m 2,1 km/h (1 Bft) 97,87 %
19.06.2016 23:44 12,9 C 11,7 C 10,0 C 86 % 1 lf 1023,2 hPa 0,0 l/m 0 min 0 min 5 W/m 4,2 km/h (1 Bft) 91,49 %
19.06.2016 23:46 12,9 C 11,7 C 10,0 C 86 % 1 lf 1023,2 hPa 0,0 l/m 0 min 0 min 5 W/m 4,2 km/h (1 Bft) 95,74 %
19.06.2016 23:48 12,8 C 11,1 C 10,0 C 86 % 1 lf 1023,1 hPa 0,0 l/m 0 min 0 min 5 W/m 2,1 km/h (1 Bft) 97,83 %
19.06.2016 23:50 12,8 C 11,1 C 10,0 C 86 % 1 lf 1023,1 hPa 0,0 l/m 0 min 0 min 5 W/m 0,0 km/h (0 Bft) 97,87 %
19.06.2016 23:52 12,8 C 11,1 C 10,0 C 86 % 1 lf 1023,1 hPa 0,0 l/m 0 min 0 min 5 W/m 4,2 km/h (1 Bft) 97,87 %
19.06.2016 23:54 12,8 C 11,1 C 10,0 C 86 % 1 lf 1023,1 hPa 0,0 l/m 0 min 0 min 5 W/m 4,2 km/h (1 Bft) 89,36 %
19.06.2016 23:56 12,7 C 11,1 C 10,0 C 86 % 1 lf 1023,2 hPa 0,0 l/m 0 min 0 min 5 W/m 2,1 km/h (1 Bft) 100,00 %
19.06.2016 23:58 12,7 C 11,1 C 10,0 C 87 % 1 lf 1023,1 hPa 0,0 l/m 0 min 0 min 5 W/m 0,0 km/h (0 Bft) 97,87 %
_ Min-Zeit 06:16 23:36 23:18 16:42 00:00 00:00 - - - - 21:02 17:30
Minimum _ 12,2 C 11,1 C 10,0 C 56 % 0 lf 1019,6 hPa - - - - 0,0 km/h (0 Bft) 87,23 %
_ Max-Zeit 16:44 14:36 14:38 02:12 01:56 13:34 00:00 08:56 02:34 14:38 14:10 01:22
Maximum _ 20,4 C 30,0 C 31,1 C 95 % 15 lf 1024,2 hPa 0,0 l/m 2 min 2 min 1288 W/m 25,1 km/h
N-NW (4 Bft)
100,00 %
Durchschnitt _ 15,5 C 17,1 C 15,8 C 79 % 1 lf 1022,7 hPa #0,0 l/m #6:44 h #6 min. 224 W/m 10,6 km/h (2 Bft) 96,09 %
© 2016 W. Hausmann